DB0MOE-6 Weather Reports


time (UTC)temp
C
wind
direction
speed
KPH
gust
KPH
rain 1hr
cm
rain 24hr
cm
rain mn
cm
humidity
%
barometer
mb
20260507131522 13 112 0.0 0.0 0.00 3.76 0.97 83 995.9
20260507131422 13 112 0.0 0.0 0.00 3.76 0.97 83 995.9
20260507131322 13 112 0.0 0.0 0.00 3.76 0.97 83 995.7
20260507131222 13 112 0.0 0.0 0.00 3.76 0.97 83 995.8
20260507131122 13 112 0.0 0.0 0.00 3.78 0.97 82 995.8
20260507131022 13 112 0.0 0.0 0.00 3.81 0.97 82 995.8
20260507130921 13 112 0.0 0.0 0.00 3.81 0.97 82 995.7
20260507130821 13 112 0.0 0.0 0.00 3.84 0.97 82 995.7
20260507130721 13 112 0.0 0.0 0.00 3.86 0.97 82 995.8
20260507130621 13 112 0.0 0.0 0.00 3.91 0.97 82 995.8
20260507130521 13 112 0.0 0.0 0.00 3.96 0.97 83 995.7
20260507130421 13 120 0.0 0.0 0.00 4.04 0.97 83 995.7
20260507130321 13 122 0.0 0.0 0.00 4.19 0.97 82 995.8
20260507130221 13 112 0.0 0.0 0.00 4.24 0.97 82 995.7
20260507130121 13 114 0.0 1.6 0.00 4.27 0.97 82 995.7
20260507130021 13 127 0.0 1.6 0.00 4.32 0.97 81 995.7
20260507125921 13 118 0.0 0.0 0.00 4.50 0.97 80 995.7
20260507125821 13 135 0.0 0.0 0.00 4.50 0.97 78 995.7
20260507125721 13 135 0.0 0.0 0.00 4.52 0.97 78 995.7
20260507125621 13 135 0.0 1.6 0.00 4.52 0.97 78 995.7
20260507125521 13 135 0.0 1.6 0.00 4.52 0.97 77 995.7
20260507125421 13 144 0.0 1.6 0.00 4.52 0.97 76 995.6
20260507125321 13 140 1.6 1.6 0.00 4.52 0.97 75 995.7
20260507125221 13 127 0.0 1.6 0.00 4.52 0.97 77 995.7
20260507125121 13 112 0.0 1.6 0.00 4.52 0.97 77 995.8
20260507125021 13 112 0.0 1.6 0.00 4.52 0.97 77 995.6
20260507124921 13 93 0.0 1.6 0.00 4.52 0.97 76 995.8
20260507124821 13 90 0.0 0.0 0.00 4.52 0.97 76 995.6
20260507124723 13 97 0.0 1.6 0.00 4.52 0.97 76 995.7
20260507124623 13 100 0.0 1.6 0.00 4.52 0.97 75 995.7
20260507124523 13 96 0.0 1.6 0.00 4.52 0.97 75 995.7
20260507124422 13 135 0.0 1.6 0.00 4.52 0.97 73 995.7
20260507124322 13 135 0.0 1.6 0.00 4.52 0.97 73 995.6
20260507124222 13 122 1.6 1.6 0.00 4.52 0.97 73 995.7
20260507124122 13 128 0.0 1.6 0.00 4.52 0.97 76 995.7
20260507124022 13 112 0.0 0.0 0.00 4.52 0.97 77 995.7
20260507123922 13 120 0.0 0.0 0.00 4.52 0.97 76 995.7
20260507123822 13 135 0.0 1.6 0.00 4.52 0.97 75 995.7
20260507123722 13 135 0.0 3.2 0.00 4.52 0.97 74 995.6
20260507123622 13 137 1.6 1.6 0.00 4.52 0.97 75 995.6
20260507123522 13 125 0.0 1.6 0.00 4.52 0.97 75 995.6
20260507123422 13 116 0.0 0.0 0.00 4.52 0.97 76 995.6
20260507123322 13 135 0.0 1.6 0.00 4.52 0.97 75 995.6
20260507123222 13 135 0.0 1.6 0.00 4.52 0.97 74 995.8
20260507123122 13 146 0.0 1.6 0.00 4.52 0.97 75 995.6
20260507123022 13 158 0.0 0.0 0.00 4.52 0.97 76 995.7
20260507122922 13 153 0.0 0.0 0.00 4.52 0.97 74 995.8
20260507122822 13 138 0.0 0.0 0.00 4.52 0.97 73 995.7
20260507122722 13 150 0.0 0.0 0.00 4.52 0.97 74 995.7
20260507122622 13 107 0.0 0.0 0.00 4.52 0.97 77 995.7
20260507122522 13 90 0.0 0.0 0.00 4.52 0.97 78 995.6
20260507122422 13 93 0.0 0.0 0.00 4.52 0.97 78 995.6
20260507122322 13 112 0.0 1.6 0.00 4.52 0.97 78 995.6
20260507122222 13 147 0.0 1.6 0.00 4.52 0.97 78 995.5
20260507122122 13 262 0.0 3.2 0.00 4.52 0.97 77 995.8
20260507122022 13 267 1.6 3.2 0.00 4.52 0.97 77 995.8
20260507121921 13 256 1.6 3.2 0.00 4.52 0.97 75 995.6
20260507121822 13 270 1.6 3.2 0.00 4.52 0.97 75 995.6
20260507121721 13 270 1.6 1.6 0.00 4.52 0.97 75 995.6
20260507121621 13 270 1.6 3.2 0.00 4.52 0.97 76 995.6
20260507121521 13 293 0.0 1.6 0.00 4.52 0.97 75 995.7
20260507121421 13 313 0.0 1.6 0.00 4.52 0.97 75 995.5
20260507121321 13 252 0.0 1.6 0.00 4.52 0.97 77 995.5
20260507121221 13 346 0.0 0.0 0.00 4.52 0.97 76 995.5
20260507121121 13 18 0.0 0.0 0.00 4.52 0.97 76 995.6
20260507121021 13 28 0.0 1.6 0.00 4.52 0.97 75 995.5
20260507120921 13 342 0.0 1.6 0.00 4.52 0.97 76 995.6
20260507120821 13 291 0.0 1.6 0.00 4.52 0.97 75 995.5
20260507120721 13 283 1.6 3.2 0.00 4.52 0.97 75 995.5
20260507120621 13 270 1.6 3.2 0.00 4.52 0.97 74 995.4
20260507120521 13 270 1.6 1.6 0.00 4.52 0.97 74 995.6
20260507120421 13 270 1.6 4.8 0.00 4.52 0.97 73 995.5
20260507120321 13 282 0.0 4.8 0.00 4.52 0.97 74 995.3
20260507120221 13 291 0.0 1.6 0.00 4.52 0.97 75 995.5
20260507120121 13 271 1.6 1.6 0.00 4.52 0.97 74 995.5
20260507120023 13 289 1.6 3.2 0.00 4.52 0.97 73 995.6
20260507115923 13 281 3.2 3.2 0.00 4.52 0.97 72 995.4
20260507115823 13 270 3.2 3.2 0.00 4.52 0.97 71 995.3
20260507115723 13 270 1.6 3.2 0.00 4.52 0.97 70 995.7
20260507115623 14 284 1.6 3.2 0.00 4.52 0.97 71 995.7
20260507115522 14 270 1.6 3.2 0.00 4.52 0.97 73 995.5
20260507115422 14 90 0.0 1.6 0.00 4.52 0.97 71 995.6
20260507115322 14 104 0.0 1.6 0.00 4.52 0.97 70 995.6
20260507115222 14 122 0.0 1.6 0.00 4.52 0.97 70 995.5
20260507115122 13 90 0.0 1.6 0.00 4.52 0.97 71 995.5
20260507115022 13 105 0.0 1.6 0.00 4.52 0.97 70 995.5
20260507114922 13 112 0.0 1.6 0.00 4.52 0.97 70 995.4
20260507114822 13 93 0.0 1.6 0.00 4.52 0.97 73 995.4
20260507114722 13 325 0.0 1.6 0.00 4.52 0.97 73 995.5
20260507114622 13 292 0.0 1.6 0.00 4.52 0.97 75 995.6
20260507114522 13 262 1.6 3.2 0.00 4.52 0.97 75 995.6
20260507114422 13 226 1.6 3.2 0.00 4.52 0.97 73 995.5
20260507114322 13 270 1.6 3.2 0.00 4.52 0.97 74 995.4
20260507114222 13 283 0.0 1.6 0.00 4.52 0.97 74 995.5
20260507114122 13 291 1.6 3.2 0.00 4.52 0.97 72 995.5
20260507114022 14 272 1.6 3.2 0.00 4.52 0.97 70 995.6
20260507113922 14 279 1.6 3.2 0.00 4.52 0.97 71 995.5
20260507113822 14 292 0.0 3.2 0.00 4.52 0.97 71 995.5
20260507113722 14 292 1.6 3.2 0.00 4.52 0.97 71 995.5
20260507113622 14 292 0.0 3.2 0.00 4.52 0.97 71 995.5
20260507113522 14 322 0.0 1.6 0.00 4.52 0.97 73 995.5
20260507113422 15 124 0.0 1.6 0.00 4.52 0.97 73 995.5
20260507113322 15 135 0.0 1.6 0.00 4.52 0.97 72 995.4
20260507113222 15 125 0.0 1.6 0.00 4.52 0.97 71 995.5
20260507113121 15 88 0.0 1.6 0.00 4.52 0.97 73 995.5
20260507113023 15 43 0.0 3.2 0.00 4.52 0.97 75 995.4
20260507112921 14 56 0.0 3.2 0.00 4.52 0.97 76 995.4
20260507112821 14 109 0.0 0.0 0.00 4.52 0.97 75 995.5
20260507112721 14 112 0.0 3.2 0.00 4.52 0.97 74 995.3
20260507112621 14 86 0.0 3.2 0.00 4.52 0.97 73 995.2
20260507112521 14 71 0.0 0.0 0.00 4.52 0.97 74 995.5
20260507112421 13 125 0.0 1.6 0.00 4.52 0.97 74 995.3
20260507112321 13 125 0.0 1.6 0.00 4.52 0.97 75 995.5
20260507112221 13 135 0.0 0.0 0.00 4.52 0.97 75 995.4
20260507112121 13 135 0.0 0.0 0.00 4.52 0.97 77 995.3
20260507112021 13 135 0.0 1.6 0.00 4.52 0.97 77 995.4
20260507111921 13 67 0.0 1.6 0.00 4.52 0.97 77 995.4
20260507111821 13 76 0.0 1.6 0.00 4.52 0.97 77 995.4
20260507111721 13 49 0.0 3.2 0.00 4.52 0.97 77 995.5
20260507111621 13 67 1.6 3.2 0.00 4.52 0.97 79 995.4
20260507111521 13 162 0.0 1.6 0.00 4.52 0.97 80 995.5
20260507111421 13 180 0.0 0.0 0.00 4.52 0.97 80 995.5
20260507111321 13 180 0.0 0.0 0.00 4.52 0.97 79 995.4
20260507111221 13 180 0.0 0.0 0.00 4.52 0.97 80 995.5
20260507111123 12 180 0.0 0.0 0.00 4.52 0.97 81 995.4
20260507111023 12 180 0.0 0.0 0.00 4.52 0.97 81 995.4
20260507110923 12 180 0.0 1.6 0.00 4.52 0.97 82 995.4
20260507110823 12 180 0.0 1.6 0.00 4.52 0.97 81 995.4
20260507110723 12 199 0.0 1.6 0.00 4.52 0.97 81 995.4
20260507110622 12 303 0.0 1.6 0.00 4.52 0.97 82 995.4
20260507110522 12 292 0.0 0.0 0.00 4.52 0.97 84 995.4
20260507110422 12 292 0.0 0.0 0.00 4.52 0.97 85 995.4
20260507110322 12 292 0.0 0.0 0.00 4.52 0.97 85 995.4
20260507110222 12 292 0.0 0.0 0.00 4.52 0.97 85 995.5
20260507110122 12 292 0.0 0.0 0.00 4.52 0.97 85 995.5
20260507110022 12 292 0.0 0.0 0.00 4.52 0.97 85 995.5
20260507105922 12 292 0.0 0.0 0.00 4.52 0.97 85 995.4
20260507105822 12 292 0.0 0.0 0.00 4.52 0.97 84 995.4
20260507105722 12 292 0.0 0.0 0.00 4.52 0.97 84 995.6
20260507105622 12 292 0.0 0.0 0.00 4.52 0.97 83 995.6
20260507105522 12 292 0.0 0.0 0.00 4.52 0.97 83 995.4
20260507105422 12 292 0.0 0.0 0.00 4.52 0.97 83 995.5
20260507105322 11 292 0.0 0.0 0.00 4.52 0.97 84 995.5
20260507105222 11 292 0.0 0.0 0.00 4.52 0.97 83 995.4
20260507105122 11 292 0.0 0.0 0.00 4.52 0.97 82 995.5
20260507105022 11 292 0.0 0.0 0.00 4.52 0.97 84 995.5
20260507104922 11 292 0.0 1.6 0.00 4.52 0.97 85 995.4
20260507104822 11 292 1.6 1.6 0.00 4.52 0.97 84 995.5
20260507104722 11 292 0.0 1.6 0.00 4.52 0.97 84 995.5
20260507104622 11 292 0.0 1.6 0.00 4.52 0.97 82 995.5
20260507104522 11 259 1.6 3.2 0.00 4.52 0.97 83 995.6
20260507104422 11 300 1.6 3.2 0.00 4.52 0.97 83 995.4
20260507104322 11 315 1.6 3.2 0.00 4.52 0.97 83 995.5
20260507104222 11 315 1.6 3.2 0.00 4.52 0.97 83 995.5
20260507104122 11 315 1.6 3.2 0.00 4.52 0.97 82 995.5
20260507104022 11 306 1.6 3.2 0.00 4.52 0.97 82 995.6
20260507103921 11 292 1.6 3.2 0.00 4.52 0.97 82 995.6
20260507103821 12 292 1.6 3.2 0.00 4.52 0.97 81 995.6
20260507103721 12 310 1.6 3.2 0.00 4.52 0.97 81 995.5
20260507103621 12 313 1.6 3.2 0.00 4.52 0.97 80 995.7
20260507103521 12 285 1.6 3.2 0.00 4.52 0.97 80 995.4
20260507103421 12 287 1.6 3.2 0.00 4.52 0.97 80 995.5
20260507103321 12 307 1.6 3.2 0.00 4.52 0.97 80 995.4
20260507103221 12 295 1.6 4.8 0.00 4.52 0.97 78 995.5
20260507103121 12 315 3.2 8.0 0.00 4.52 0.97 78 995.5
20260507103021 12 292 3.2 8.0 0.00 4.52 0.97 79 995.5
20260507102921 12 272 1.6 8.0 0.00 4.52 0.97 80 995.4
20260507102821 12 292 1.6 1.6 0.00 4.52 0.97 80 995.4
20260507102721 12 292 0.0 1.6 0.00 4.52 0.97 80 995.5
20260507102621 12 292 0.0 3.2 0.00 4.52 0.97 80 995.5
20260507102521 12 292 1.6 4.8 0.00 4.52 0.97 77 995.5
20260507102421 12 291 3.2 4.8 0.00 4.52 0.97 76 995.3
20260507102321 12 271 1.6 4.8 0.00 4.52 0.97 77 995.4
20260507102221 12 270 1.6 4.8 0.00 4.52 0.97 78 995.4
20260507102121 12 270 1.6 3.2 0.00 4.52 0.97 77 995.5
20260507102021 12 270 1.6 1.6 0.00 4.52 0.97 78 995.4
20260507101923 12 278 1.6 1.6 0.00 4.52 0.97 79 995.3
20260507101823 12 292 0.0 1.6 0.00 4.52 0.97 79 995.5
20260507101723 12 213 0.0 1.6 0.00 4.52 0.97 79 995.5
20260507101623 12 211 1.6 3.2 0.00 4.52 0.97 80 995.5
20260507101523 12 289 1.6 3.2 0.00 4.52 0.97 79 995.4
20260507101422 12 270 3.2 8.0 0.00 4.52 0.97 79 995.4
20260507101322 12 270 3.2 8.0 0.00 4.52 0.97 79 995.5
20260507101222 12 268 3.2 4.8 0.00 4.52 0.97 78 995.4
20260507101122 12 248 1.6 4.8 0.00 4.52 0.97 78 995.4
20260507101022 12 264 3.2 4.8 0.00 4.52 0.97 78 995.4
20260507100922 12 270 1.6 4.8 0.00 4.52 0.97 78 995.4
20260507100822 12 90 1.6 8.0 0.00 4.52 0.97 79 995.4
20260507100722 12 270 0.0 8.0 0.00 4.52 0.97 78 995.4
20260507100622 12 272 0.0 1.6 0.00 4.52 0.97 80 995.3
20260507100522 12 16 0.0 1.6 0.00 4.52 0.97 80 995.4
20260507100422 12 326 0.0 1.6 0.00 4.52 0.97 80 995.4
20260507100322 12 315 0.0 3.2 0.00 4.52 0.97 80 995.3
20260507100222 12 278 1.6 4.8 0.00 4.52 0.97 80 995.4
20260507100122 12 290 0.0 4.8 0.00 4.52 0.97 81 995.2
20260507100022 12 255 1.6 8.0 0.00 4.52 0.97 80 995.2
20260507095922 12 244 3.2 8.0 0.00 4.52 0.97 80 995.2
20260507095822 12 282 3.2 4.8 0.00 4.52 0.97 81 995.2
20260507095722 12 273 1.6 4.8 0.00 4.52 0.97 82 995.3
20260507095622 12 332 0.0 4.8 0.00 4.52 0.97 81 995.3
20260507095522 12 267 1.6 8.0 0.00 4.52 0.97 81 995.2
20260507095422 12 263 4.8 9.7 0.00 4.52 0.97 80 995.1
20260507095322 12 270 4.8 9.7 0.00 4.52 0.97 80 995.1
20260507095222 12 270 4.8 11.3 0.00 4.52 0.97 79 995.1
20260507095122 12 270 1.6 4.8 0.00 4.52 0.97 79 995.2
20260507095022 12 339 1.6 4.8 0.00 4.52 0.97 80 995.3
20260507094922 12 45 0.0 0.0 0.00 4.52 0.97 81 995.1
20260507094822 12 351 0.0 3.2 0.00 4.52 0.97 81 995.2
20260507094721 12 0 1.6 3.2 0.00 4.52 0.97 80 995.1
20260507094621 12 324 0.0 3.2 0.00 4.52 0.97 80 995.1
20260507094521 12 330 0.0 1.6 0.00 4.52 0.97 81 995.2
20260507094421 12 290 0.0 1.6 0.00 4.52 0.97 80 995.1
20260507094321 12 132 0.0 1.6 0.00 4.52 0.97 80 995.2
20260507094221 12 42 0.0 1.6 0.00 4.52 0.97 81 995.2
20260507094121 12 52 0.0 1.6 0.00 4.52 0.97 81 995.3
20260507094021 12 46 0.0 1.6 0.00 4.52 0.97 81 995.0
20260507093921 12 0 0.0 1.6 0.00 4.52 0.97 82 995.0
20260507093821 12 32 1.6 1.6 0.00 4.52 0.97 81 995.1
20260507093721 12 286 0.0 1.6 0.00 4.52 0.97 82 995.0
20260507093621 12 45 0.0 1.6 0.00 4.52 0.97 82 995.1
20260507093521 12 344 0.0 4.8 0.00 4.52 0.97 83 995.2
20260507093421 12 282 1.6 4.8 0.00 4.52 0.97 82 995.0
20260507093321 12 303 1.6 1.6 0.00 4.52 0.97 82 994.9
20260507093221 12 357 0.0 1.6 0.00 4.52 0.97 84 994.9
20260507093121 12 330 0.0 1.6 0.00 4.52 0.97 84 995.0
20260507093023 12 270 1.6 1.6 0.00 4.52 0.97 84 995.0
20260507092923 12 269 1.6 3.2 0.00 4.52 0.97 84 995.0
20260507092822 12 258 0.0 3.2 0.00 4.52 0.97 84 995.2
20260507092722 12 281 0.0 1.6 0.00 4.52 0.97 84 995.0
20260507092622 12 285 0.0 3.2 0.00 4.52 0.97 83 995.0
20260507092522 12 270 0.0 3.2 0.00 4.52 0.97 83 995.0
20260507092422 12 279 0.0 3.2 0.00 4.52 0.97 85 995.1
20260507092323 12 280 0.0 1.6 0.00 4.52 0.97 86 995.1
20260507092222 11 270 0.0 1.6 0.00 4.52 0.97 86 995.0
20260507092122 11 285 1.6 3.2 0.00 4.52 0.97 84 995.0
20260507092022 11 287 0.0 3.2 0.00 4.52 0.97 86 995.1
20260507091922 11 270 1.6 4.8 0.00 4.52 0.97 84 995.0
20260507091822 11 278 3.2 4.8 0.00 4.52 0.97 83 995.0
20260507091722 11 280 1.6 4.8 0.00 4.52 0.97 85 995.1
20260507091622 11 270 1.6 3.2 0.00 4.52 0.97 84 995.1
20260507091522 11 270 1.6 3.2 0.00 4.52 0.97 85 995.1
20260507091422 11 270 1.6 3.2 0.00 4.52 0.97 86 995.1
20260507091322 11 299 1.6 3.2 0.00 4.52 0.97 85 995.0
20260507091222 11 271 1.6 1.6 0.00 4.52 0.97 85 995.0
20260507091122 11 270 1.6 3.2 0.00 4.52 0.97 85 994.9
20260507091022 11 281 1.6 3.2 0.00 4.52 0.97 85 994.9
20260507090922 11 275 1.6 3.2 0.00 4.52 0.97 87 994.9
20260507090822 11 274 1.6 3.2 0.00 4.52 0.97 86 995.0
20260507090722 11 292 1.6 3.2 0.00 4.52 0.97 86 994.9
20260507090622 11 292 1.6 4.8 0.00 4.52 0.97 86 994.9
20260507090522 11 276 1.6 4.8 0.00 4.52 0.97 87 994.7
20260507090422 11 248 1.6 4.8 0.00 4.52 0.97 89 994.8
20260507090321 11 203 0.0 1.6 0.00 4.52 0.97 90 994.7
20260507090221 11 112 0.0 0.0 0.00 4.52 0.97 91 994.7
20260507090121 11 112 0.0 0.0 0.00 4.52 0.97 91 994.8
20260507090021 11 112 0.0 0.0 0.00 4.52 0.97 90 994.7
20260507085921 11 112 0.0 0.0 0.00 4.52 0.97 90 994.7
20260507085821 11 112 0.0 0.0 0.00 4.52 0.97 90 994.7
20260507085721 11 112 0.0 0.0 0.00 4.52 0.97 90 994.6
20260507085621 11 112 0.0 0.0 0.00 4.52 0.97 90 994.6
20260507085521 11 112 0.0 0.0 0.00 4.52 0.97 90 994.6
20260507085421 11 112 0.0 0.0 0.00 4.52 0.97 90 994.6
20260507085321 11 112 0.0 0.0 0.00 4.52 0.97 90 994.5
20260507085221 11 112 0.0 0.0 0.00 4.52 0.97 89 994.7
20260507085121 11 112 0.0 0.0 0.00 4.52 0.97 89 994.6
20260507085021 11 112 0.0 0.0 0.00 4.52 0.97 88 994.6
20260507084921 11 112 0.0 0.0 0.00 4.52 0.97 88 994.7
20260507084821 11 112 0.0 0.0 0.00 4.52 0.97 88 994.6
20260507084721 11 112 0.0 0.0 0.00 4.52 0.97 88 994.6
20260507084621 11 112 0.0 0.0 0.00 4.52 0.97 87 994.5
20260507084521 11 112 0.0 0.0 0.00 4.52 0.97 87 994.5
20260507084421 11 112 0.0 0.0 0.00 4.52 0.97 87 994.6
20260507084323 11 112 0.0 0.0 0.00 4.52 0.97 87 994.5
20260507084223 11 112 0.0 0.0 0.00 4.52 0.97 87 994.6
20260507084123 11 112 0.0 0.0 0.00 4.52 0.97 88 994.7
20260507084023 11 112 0.0 0.0 0.00 4.52 0.97 88 994.5
20260507083923 11 112 0.0 0.0 0.00 4.52 0.97 88 994.4
20260507083822 11 112 0.0 0.0 0.00 4.52 0.97 87 994.5
20260507083722 11 112 0.0 0.0 0.00 4.52 0.97 87 994.5
20260507083622 11 118 0.0 1.6 0.00 4.52 0.97 87 994.3
20260507083522 11 135 1.6 1.6 0.00 4.52 0.97 87 994.4
20260507083422 11 122 1.6 1.6 0.00 4.52 0.97 87 994.5
20260507083322 11 75 0.0 1.6 0.00 4.52 0.97 87 994.4
20260507083222 11 68 0.0 0.0 0.00 4.52 0.97 87 994.3
20260507083122 11 68 0.0 1.6 0.00 4.52 0.97 87 994.3
20260507083022 11 68 0.0 1.6 0.00 4.52 0.97 86 994.4
20260507082922 11 68 0.0 1.6 0.00 4.52 0.97 86 994.4
20260507082822 11 68 0.0 1.6 0.00 4.52 0.97 86 994.3
20260507082722 11 68 0.0 1.6 0.00 4.52 0.97 86 994.4
20260507082622 11 68 0.0 1.6 0.00 4.52 0.97 87 994.4
20260507082522 11 11 0.0 1.6 0.00 4.52 0.97 88 994.2
20260507082422 11 292 0.0 0.0 0.00 4.52 0.97 88 994.2
20260507082322 11 292 0.0 0.0 0.00 4.52 0.97 88 994.3
20260507082222 11 292 0.0 0.0 0.00 4.52 0.97 87 994.4
20260507082122 11 292 0.0 0.0 0.00 4.52 0.97 86 994.2
20260507082022 11 292 0.0 0.0 0.00 4.52 0.97 86 994.4
20260507081922 11 284 0.0 1.6 0.00 4.52 0.97 87 994.3
20260507081822 11 141 0.0 1.6 0.00 4.52 0.97 85 994.2
20260507081722 11 94 0.0 1.6 0.00 4.52 0.97 86 994.2
20260507081622 11 90 0.0 0.0 0.00 4.52 0.97 86 994.3
20260507081521 11 90 0.0 0.0 0.00 4.52 0.97 86 994.2
20260507081421 11 90 0.0 0.0 0.00 4.52 0.97 85 994.2
20260507081321 11 99 0.0 1.6 0.00 4.52 0.97 84 994.2
20260507081221 11 132 0.0 0.0 0.00 4.52 0.97 85 994.2
20260507081121 11 112 0.0 0.0 0.00 4.52 0.97 85 994.2
20260507081021 11 112 0.0 0.0 0.00 4.52 0.97 84 994.1
20260507080921 11 112 0.0 1.6 0.00 4.52 0.97 85 994.2
20260507080821 11 104 1.6 1.6 0.00 4.52 0.97 85 994.3
20260507080721 11 46 1.6 1.6 0.00 4.52 0.97 85 994.2
20260507080621 11 225 0.0 1.6 0.00 4.52 0.97 86 994.2
20260507080521 11 225 0.0 0.0 0.00 4.52 0.97 86 994.2
20260507080421 11 228 0.0 1.6 0.00 4.52 0.97 85 994.3
20260507080321 11 248 0.0 1.6 0.00 4.52 0.97 87 994.2
20260507080221 11 248 0.0 1.6 0.00 4.52 0.97 87 994.3
20260507080121 11 261 0.0 1.6 0.00 4.52 0.97 87 994.1
20260507080021 11 112 1.6 1.6 0.00 4.52 0.97 86 994.1
20260507075923 11 112 0.0 1.6 0.00 4.52 0.97 86 994.2
20260507075823 11 112 0.0 0.0 0.00 4.52 0.97 86 994.3
20260507075723 11 112 0.0 0.0 0.00 4.52 0.97 87 994.3
20260507075623 11 112 0.0 0.0 0.00 4.52 0.97 87 994.3
20260507075522 11 112 0.0 0.0 0.00 4.52 0.97 87 994.2
20260507075423 11 112 0.0 0.0 0.00 4.52 0.97 87 994.1
20260507075322 11 112 0.0 0.0 0.00 4.52 0.97 86 994.1
20260507075222 11 112 0.0 1.6 0.00 4.52 0.97 86 994.2
20260507075122 11 112 0.0 1.6 0.00 4.52 0.97 88 994.1
20260507075022 11 112 0.0 0.0 0.00 4.52 0.97 88 994.2
20260507074923 11 112 0.0 0.0 0.00 4.52 0.97 88 994.2
20260507074822 11 112 0.0 0.0 0.00 4.52 0.97 88 994.2
20260507074722 11 112 0.0 0.0 0.00 4.52 0.97 88 994.2
20260507074622 11 112 0.0 0.0 0.00 4.52 0.97 88 994.0
20260507074522 11 112 0.0 0.0 0.00 4.52 0.97 88 994.2
20260507074422 11 112 0.0 1.6 0.00 4.52 0.97 88 994.2
20260507074322 11 112 0.0 3.2 0.00 4.52 0.97 88 994.0
20260507074222 11 234 0.0 3.2 0.00 4.52 0.97 89 994.0
20260507074122 11 248 0.0 0.0 0.00 4.52 0.97 89 994.1
20260507074022 11 248 0.0 1.6 0.00 4.52 0.97 89 994.1
20260507073922 11 202 0.0 1.6 0.00 4.52 0.97 88 994.1
20260507073822 10 112 0.0 1.6 0.00 4.52 0.97 89 994.0
20260507073722 10 112 0.0 0.0 0.00 4.52 0.97 89 994.0
20260507073622 10 112 0.0 0.0 0.00 4.52 0.97 89 993.9
20260507073522 10 112 0.0 0.0 0.00 4.52 0.97 89 994.0
20260507073422 10 112 0.0 0.0 0.00 4.52 0.97 88 994.1
20260507073322 10 112 0.0 0.0 0.00 4.52 0.97 89 994.0
20260507073222 10 112 0.0 1.6 0.00 4.52 0.97 88 994.1
20260507073122 10 112 0.0 0.0 0.00 4.52 0.97 88 994.3
20260507073022 10 112 0.0 0.0 0.00 4.52 0.97 88 994.1
20260507072921 10 112 0.0 0.0 0.00 4.52 0.97 88 994.0
20260507072821 10 112 0.0 0.0 0.00 4.52 0.97 88 994.1
20260507072721 10 112 0.0 0.0 0.00 4.52 0.97 89 994.1
20260507072621 10 112 0.0 0.0 0.00 4.52 0.97 89 994.0
20260507072521 10 112 0.0 0.0 0.00 4.52 0.97 89 994.0
20260507072421 10 112 0.0 0.0 0.00 4.52 0.97 89 994.0
20260507072321 10 112 0.0 0.0 0.00 4.52 0.97 89 994.1
20260507072221 10 112 0.0 0.0 0.00 4.52 0.97 89 994.0
20260507072121 10 112 0.0 0.0 0.00 4.52 0.97 89 993.9
20260507072021 10 112 0.0 0.0 0.00 4.52 0.97 89 994.0
20260507071921 10 112 0.0 0.0 0.00 4.52 0.97 89 993.9
20260507071821 10 112 0.0 0.0 0.00 4.52 0.97 89 993.8
20260507071721 10 112 0.0 0.0 0.00 4.52 0.97 89 993.9
20260507071621 10 112 0.0 0.0 0.00 4.52 0.97 89 993.9
20260507071521 10 112 0.0 0.0 0.00 4.52 0.97 89 993.9
20260507071421 10 112 0.0 0.0 0.00 4.52 0.97 89 993.7
20260507071321 10 112 0.0 0.0 0.00 4.52 0.97 89 993.8
20260507071221 10 112 0.0 0.0 0.00 4.52 0.97 89 993.9
20260507071121 10 112 0.0 0.0 0.00 4.52 0.97 90 994.0
20260507071021 10 112 0.0 0.0 0.00 4.52 0.97 89 993.9
20260507070921 10 112 0.0 0.0 0.00 4.52 0.97 89 993.9
20260507070821 10 112 0.0 0.0 0.00 4.52 0.97 89 993.9
20260507070721 10 112 0.0 0.0 0.00 4.52 0.97 89 993.9
20260507070623 10 112 0.0 0.0 0.00 4.52 0.97 89 993.8
20260507070523 10 112 0.0 0.0 0.00 4.52 0.97 89 993.7
20260507070423 10 112 0.0 0.0 0.00 4.52 0.97 89 993.8
20260507070323 10 112 0.0 0.0 0.00 4.52 0.97 90 993.7
20260507070222 10 112 0.0 0.0 0.00 4.52 0.97 90 993.7
20260507070122 10 112 0.0 0.0 0.00 4.52 0.97 90 993.9
20260507070022 10 112 0.0 0.0 0.00 4.52 0.97 90 993.8
20260507065922 10 112 0.0 0.0 0.00 4.52 0.97 90 993.9
20260507065822 10 112 0.0 0.0 0.00 4.52 0.97 89 993.7
20260507065722 10 112 0.0 0.0 0.00 4.52 0.97 90 993.8
20260507065622 10 112 0.0 0.0 0.00 4.52 0.97 90 993.7
20260507065522 10 112 0.0 1.6 0.00 4.52 0.97 90 993.8
20260507065422 10 112 0.0 1.6 0.00 4.52 0.97 90 993.7
20260507065322 10 112 0.0 1.6 0.00 4.52 0.97 90 993.6
20260507065222 10 112 0.0 1.6 0.00 4.52 0.97 90 993.7
20260507065122 10 112 0.0 1.6 0.00 4.52 0.97 90 993.6
20260507065022 10 112 0.0 1.6 0.00 4.52 0.97 90 993.8
20260507064922 10 112 1.6 1.6 0.00 4.52 0.97 90 993.8
20260507064822 10 112 0.0 1.6 0.00 4.52 0.97 90 993.8
20260507064722 10 112 0.0 0.0 0.00 4.52 0.97 90 993.8
20260507064622 10 112 0.0 0.0 0.00 4.52 0.97 90 993.8
20260507064522 10 112 0.0 0.0 0.00 4.52 0.97 90 993.7
20260507064422 10 112 0.0 0.0 0.00 4.52 0.97 90 993.6
20260507064322 10 112 0.0 0.0 0.00 4.52 0.97 89 993.7
20260507064222 10 122 0.0 0.0 0.00 4.52 0.97 89 993.7
20260507064122 10 135 0.0 0.0 0.00 4.52 0.97 89 993.6
20260507064022 10 135 0.0 0.0 0.00 4.52 0.97 88 993.8
20260507063922 10 135 0.0 1.6 0.00 4.52 0.97 88 993.6
20260507063822 10 145 1.6 1.6 0.00 4.52 0.97 88 993.6
20260507063722 10 158 1.6 1.6 0.00 4.52 0.97 88 993.7
20260507063622 10 158 0.0 1.6 0.00 4.52 0.97 89 993.7
20260507063522 10 146 0.0 1.6 0.00 4.52 0.97 89 993.7
20260507063422 10 125 0.0 0.0 0.00 4.52 0.97 89 993.7
20260507063321 10 128 0.0 1.6 0.00 4.52 0.97 89 993.6
20260507063221 10 135 1.6 1.6 0.00 4.52 0.97 89 993.6
20260507063121 10 135 1.6 1.6 0.00 4.52 0.97 89 993.6
20260507063021 10 150 1.6 3.2 0.00 4.52 0.97 89 993.6
20260507062921 10 145 1.6 3.2 0.00 4.52 0.97 90 993.6
20260507062821 10 112 0.0 1.6 0.00 4.52 0.97 91 993.7
20260507062721 10 112 0.0 1.6 0.00 4.52 0.97 91 993.6
20260507062621 10 120 0.0 1.6 0.00 4.52 0.97 91 993.6
20260507062521 10 135 1.6 1.6 0.00 4.52 0.97 90 993.6
20260507062421 10 135 0.0 1.6 0.00 4.52 0.97 90 993.6
20260507062321 10 135 1.6 1.6 0.00 4.52 0.97 90 993.7
20260507062221 10 135 1.6 1.6 0.00 4.52 0.97 90 993.6
20260507062121 10 118 0.0 1.6 0.00 4.52 0.97 91 993.6
20260507062021 10 134 0.0 1.6 0.00 4.52 0.97 91 993.5
20260507061921 10 135 0.0 1.6 0.00 4.52 0.97 90 993.4
20260507061821 10 135 0.0 1.6 0.00 4.52 0.97 90 993.3
20260507061721 10 135 1.6 1.6 0.00 4.52 0.97 90 993.4
20260507061621 10 124 0.0 1.6 0.00 4.52 0.97 90 993.6
20260507061521 10 112 0.0 1.6 0.00 4.52 0.97 90 993.5
20260507061421 10 112 0.0 1.6 0.00 4.52 0.97 90 993.4
20260507061321 10 112 0.0 1.6 0.00 4.52 0.97 91 993.5
20260507061221 10 120 1.6 1.6 0.00 4.52 0.97 90 993.3
20260507061121 10 135 1.6 1.6 0.00 4.52 0.97 90 993.4
20260507061021 10 135 1.6 1.6 0.00 4.52 0.97 90 993.5
20260507060923 10 150 1.6 1.6 0.00 4.52 0.97 90 993.4
20260507060823 10 124 0.0 1.6 0.00 4.52 0.97 90 993.4
20260507060723 10 112 0.0 1.6 0.00 4.52 0.97 90 993.5
20260507060623 10 120 0.0 1.6 0.00 4.52 0.97 90 993.5
20260507060522 10 135 1.6 1.6 0.00 4.52 0.97 90 993.4
20260507060422 10 127 1.6 1.6 0.03 4.52 0.97 90 993.4
20260507060322 10 112 1.6 1.6 0.03 4.52 0.97 90 993.3
20260507060222 10 123 1.6 1.6 0.03 4.52 0.97 90 993.4
20260507060122 10 135 1.6 3.2 0.03 4.52 0.97 90 993.3
20260507060022 10 128 1.6 3.2 0.03 4.52 0.97 90 993.4
20260507055922 10 116 0.0 1.6 0.03 4.52 0.97 91 993.5
20260507055822 10 146 1.6 1.6 0.03 4.52 0.97 90 993.4
20260507055722 10 156 1.6 3.2 0.03 4.52 0.97 90 993.4
20260507055622 10 135 1.6 3.2 0.03 4.52 0.97 90 993.3
20260507055522 10 135 1.6 1.6 0.03 4.52 0.97 90 993.3
20260507055422 10 135 1.6 1.6 0.03 4.52 0.97 90 993.3
20260507055322 10 135 1.6 1.6 0.03 4.52 0.97 90 993.4
20260507055222 10 135 1.6 1.6 0.03 4.52 0.97 90 993.4
20260507055122 10 135 1.6 1.6 0.03 4.52 0.97 90 993.4
20260507055022 10 151 1.6 1.6 0.03 4.52 0.97 90 993.3
20260507054922 10 142 1.6 1.6 0.03 4.52 0.97 89 993.2
20260507054822 10 135 1.6 1.6 0.03 4.52 0.97 89 993.4
20260507054722 9 135 1.6 3.2 0.03 4.52 0.97 89 993.3
20260507054622 9 146 1.6 3.2 0.03 4.52 0.97 89 993.4
20260507054522 9 158 1.6 3.2 0.03 4.52 0.97 88 993.5
20260507054422 9 158 1.6 3.2 0.03 4.52 0.97 89 993.3
20260507054322 9 158 1.6 1.6 0.03 4.52 0.97 90 993.2
20260507054222 9 158 1.6 3.2 0.03 4.52 0.97 90 993.4
20260507054122 9 141 1.6 3.2 0.03 4.52 0.97 90 993.4
20260507054021 9 135 0.0 1.6 0.03 4.52 0.97 90 993.4
20260507053922 9 135 0.0 1.6 0.03 4.52 0.97 90 993.3
20260507053821 9 135 1.6 1.6 0.03 4.52 0.97 91 993.2
20260507053721 9 152 1.6 1.6 0.03 4.52 0.97 91 993.3
20260507053621 9 158 0.0 1.6 0.05 4.52 0.97 91 993.3
20260507053521 9 158 0.0 0.0 0.05 4.52 0.97 91 993.2
20260507053421 9 158 0.0 0.0 0.05 4.52 0.97 91 993.1
20260507053321 9 158 0.0 0.0 0.05 4.52 0.97 91 993.1
20260507053221 9 158 0.0 0.0 0.05 4.52 0.97 91 993.3
20260507053121 9 158 0.0 0.0 0.05 4.52 0.97 91 993.2
20260507053021 9 158 0.0 0.0 0.05 4.52 0.97 91 993.2
20260507052921 9 158 0.0 1.6 0.05 4.52 0.97 91 993.1
20260507052821 9 158 0.0 1.6 0.05 4.52 0.97 91 993.2
20260507052721 9 158 1.6 1.6 0.05 4.52 0.97 91 993.3
20260507052621 9 158 1.6 1.6 0.05 4.52 0.97 91 993.3
20260507052521 9 158 0.0 1.6 0.05 4.52 0.97 91 993.1
20260507052421 9 158 0.0 1.6 0.05 4.52 0.97 91 993.1
20260507052321 9 158 0.0 1.6 0.05 4.52 0.97 91 993.1
20260507052221 9 158 1.6 1.6 0.05 4.52 0.97 91 993.2
20260507052121 9 158 0.0 1.6 0.05 4.52 0.97 91 993.2
20260507052021 9 158 0.0 0.0 0.05 4.52 0.97 91 993.0
20260507051921 9 158 0.0 0.0 0.05 4.52 0.97 91 993.1
20260507051821 9 158 0.0 0.0 0.05 4.52 0.97 91 993.1
20260507051721 9 158 0.0 0.0 0.05 4.52 0.97 91 993.1
20260507051621 9 158 0.0 1.6 0.05 4.52 0.97 91 993.1
20260507051521 9 158 0.0 1.6 0.05 4.52 0.97 91 993.2
20260507051421 9 158 0.0 1.6 0.10 4.52 0.97 91 993.0
20260507051321 9 158 0.0 1.6 0.10 4.52 0.97 91 993.0
20260507051221 9 158 1.6 1.6 0.10 4.52 0.97 91 993.0
20260507051123 9 158 1.6 1.6 0.10 4.52 0.97 91 993.1
20260507051023 9 158 1.6 1.6 0.10 4.52 0.97 91 993.0
20260507050923 9 158 1.6 1.6 0.10 4.52 0.97 91 993.1
20260507050823 9 158 1.6 1.6 0.10 4.52 0.97 91 993.0
20260507050722 9 158 1.6 1.6 0.10 4.52 0.97 91 992.9
20260507050622 9 158 1.6 1.6 0.10 4.52 0.97 91 992.9
20260507050522 9 158 1.6 3.2 0.10 4.52 0.97 91 993.0
20260507050422 9 160 1.6 1.6 0.05 4.50 0.94 91 993.0
20260507050322 9 180 1.6 1.6 0.05 4.50 0.94 91 992.9
20260507050222 9 180 1.6 1.6 0.05 4.50 0.94 91 992.9
20260507050122 9 180 0.0 1.6 0.05 4.50 0.94 91 993.0
20260507050022 9 180 0.0 0.0 0.05 4.50 0.94 91 993.0
20260507045922 9 180 0.0 0.0 0.05 4.50 0.94 91 993.0
20260507045822 9 180 0.0 0.0 0.05 4.50 0.94 91 992.9
20260507045722 9 180 0.0 0.0 0.05 4.50 0.94 91 992.8
20260507045622 9 180 0.0 0.0 0.05 4.50 0.94 91 992.9
20260507045522 9 180 0.0 0.0 0.05 4.50 0.94 92 992.9
20260507045422 9 180 0.0 0.0 0.05 4.50 0.94 92 992.8
20260507045322 9 180 0.0 1.6 0.05 4.50 0.94 92 992.9
20260507045222 9 180 0.0 1.6 0.05 4.50 0.94 92 992.9
20260507045122 9 180 0.0 1.6 0.05 4.50 0.94 91 992.9
20260507045022 9 180 0.0 0.0 0.05 4.50 0.94 92 992.8
20260507044922 9 180 0.0 0.0 0.05 4.50 0.94 92 992.9
20260507044822 9 180 0.0 0.0 0.05 4.50 0.94 92 992.8
20260507044722 9 180 0.0 0.0 0.05 4.50 0.94 92 992.7
20260507044621 9 180 0.0 0.0 0.05 4.50 0.94 92 992.8
20260507044521 9 180 0.0 0.0 0.05 4.50 0.94 92 992.8
20260507044421 9 180 0.0 1.6 0.05 4.50 0.94 92 992.8
20260507044321 9 180 0.0 1.6 0.05 4.50 0.94 92 992.8
20260507044221 9 180 0.0 1.6 0.05 4.50 0.94 92 992.8
20260507044121 9 180 0.0 0.0 0.05 4.50 0.94 92 992.7
20260507044021 9 180 0.0 0.0 0.05 4.50 0.94 92 992.8
20260507043921 9 180 0.0 0.0 0.05 4.50 0.94 92 992.7
20260507043821 9 180 0.0 0.0 0.05 4.50 0.94 92 992.8
20260507043721 9 180 0.0 0.0 0.05 4.50 0.94 92 992.8
20260507043621 9 180 0.0 0.0 0.05 4.47 0.89 92 992.7
20260507043521 9 180 0.0 0.0 0.05 4.47 0.89 92 992.7
20260507043421 9 180 0.0 0.0 0.05 4.47 0.89 92 992.7
20260507043321 9 180 0.0 0.0 0.05 4.47 0.89 92 992.7
20260507043221 10 180 0.0 0.0 0.05 4.47 0.89 92 992.7
20260507043121 10 180 0.0 0.0 0.05 4.47 0.89 92 992.6
20260507043021 10 180 0.0 1.6 0.05 4.47 0.89 92 992.5
20260507042921 10 180 0.0 1.6 0.05 4.47 0.89 92 992.6
20260507042821 9 180 0.0 1.6 0.05 4.47 0.89 92 992.7
20260507042723 9 180 0.0 1.6 0.05 4.47 0.89 92 992.7
20260507042623 9 180 0.0 1.6 0.05 4.47 0.89 92 992.6
20260507042523 9 260 0.0 0.0 0.05 4.47 0.89 92 992.5
20260507042423 9 261 0.0 0.0 0.05 4.47 0.89 92 992.6
20260507042323 9 180 0.0 0.0 0.05 4.47 0.89 92 992.7
20260507042223 9 180 0.0 0.0 0.05 4.47 0.89 92 992.5
20260507042122 9 180 0.0 0.0 0.05 4.47 0.89 92 992.5
20260507042023 9 180 0.0 0.0 0.05 4.47 0.89 92 992.5
20260507041922 9 180 0.0 0.0 0.05 4.47 0.89 92 992.5
20260507041823 9 180 0.0 0.0 0.05 4.47 0.89 92 992.5
20260507041722 10 180 0.0 0.0 0.05 4.47 0.89 92 992.6
20260507041622 10 180 0.0 0.0 0.05 4.47 0.89 92 992.6
20260507041522 9 180 0.0 0.0 0.05 4.47 0.89 92 992.6
20260507041422 9 180 0.0 0.0 0.05 4.45 0.86 92 992.5
20260507041322 9 180 0.0 0.0 0.05 4.45 0.86 92 992.5
20260507041222 9 180 0.0 1.6 0.05 4.45 0.86 92 992.6
20260507041122 9 188 0.0 1.6 0.05 4.45 0.86 92 992.6
20260507041022 9 218 0.0 1.6 0.05 4.45 0.86 92 992.6
20260507040922 9 284 0.0 0.0 0.05 4.45 0.86 92 992.3
20260507040822 9 292 0.0 0.0 0.05 4.45 0.86 92 992.4
20260507040722 9 292 0.0 0.0 0.05 4.45 0.86 92 992.4
20260507040622 9 292 0.0 0.0 0.05 4.45 0.86 92 992.5
20260507040522 9 292 0.0 0.0 0.05 4.45 0.86 92 992.4
20260507040422 9 292 0.0 0.0 0.05 4.45 0.86 92 992.3
20260507040322 9 292 0.0 0.0 0.05 4.45 0.86 92 992.4
20260507040222 9 292 0.0 0.0 0.05 4.45 0.86 92 992.3
20260507040122 9 292 0.0 0.0 0.05 4.45 0.86 92 992.7
20260507040022 9 292 0.0 0.0 0.05 4.45 0.86 92 992.4
20260507035922 9 292 0.0 0.0 0.05 4.45 0.86 92 992.4
20260507035822 9 292 0.0 0.0 0.05 4.45 0.86 92 992.5
20260507035722 9 292 0.0 0.0 0.05 4.45 0.86 92 992.4
20260507035622 9 292 0.0 0.0 0.05 4.45 0.86 92 992.4
20260507035522 9 292 0.0 0.0 0.10 4.45 0.86 92 992.4
20260507035421 9 292 0.0 0.0 0.10 4.45 0.86 92 992.3
20260507035321 9 292 0.0 0.0 0.10 4.45 0.86 92 992.5
20260507035221 9 292 0.0 0.0 0.10 4.45 0.86 92 992.3
20260507035121 9 292 0.0 0.0 0.10 4.45 0.86 92 992.4
20260507035021 9 292 0.0 0.0 0.10 4.45 0.86 91 992.4
20260507034921 9 292 0.0 0.0 0.10 4.45 0.86 92 992.4
20260507034821 9 292 0.0 0.0 0.10 4.45 0.86 91 992.5
20260507034721 9 292 0.0 1.6 0.10 4.45 0.86 91 992.4
20260507034621 9 292 0.0 1.6 0.10 4.45 0.86 91 992.4
20260507034521 9 292 0.0 1.6 0.13 4.45 0.86 91 992.3
20260507034421 9 274 0.0 1.6 0.13 4.45 0.86 91 992.3
20260507034321 9 270 0.0 1.6 0.13 4.45 0.86 91 992.2
20260507034221 9 270 0.0 1.6 0.13 4.45 0.86 91 992.3
20260507034121 9 270 1.6 1.6 0.13 4.45 0.86 91 992.3
20260507034021 9 276 0.0 1.6 0.13 4.45 0.86 91 992.2
20260507033921 9 286 0.0 3.2 0.13 4.45 0.86 91 992.3
20260507033821 9 270 1.6 3.2 0.13 4.45 0.86 91 992.2
20260507033721 9 270 1.6 3.2 0.13 4.45 0.86 91 992.1
20260507033621 9 264 1.6 8.0 0.10 4.42 0.84 91 992.3
20260507033523 9 259 3.2 9.7 0.10 4.42 0.84 91 992.2
20260507033423 9 270 3.2 9.7 0.10 4.42 0.84 92 992.2
20260507033323 10 270 1.6 4.8 0.13 4.42 0.84 92 992.2
20260507033222 10 270 1.6 4.8 0.13 4.42 0.84 92 992.3
20260507033122 10 270 1.6 3.2 0.13 4.42 0.84 92 992.2
20260507033022 10 270 1.6 4.8 0.13 4.42 0.84 92 992.0
20260507032922 10 288 1.6 4.8 0.13 4.42 0.84 92 992.2
20260507032822 10 310 1.6 4.8 0.13 4.42 0.84 92 992.2
20260507032722 10 270 1.6 3.2 0.13 4.42 0.84 92 992.2
20260507032622 10 270 1.6 3.2 0.13 4.42 0.84 92 992.1
20260507032522 10 270 1.6 3.2 0.13 4.42 0.84 92 992.2
20260507032422 10 270 1.6 3.2 0.13 4.42 0.84 92 992.1
20260507032322 10 270 3.2 4.8 0.13 4.42 0.84 92 992.1
20260507032222 10 254 3.2 9.7 0.13 4.42 0.84 92 992.1
20260507032122 10 248 3.2 9.7 0.13 4.42 0.84 92 992.2
20260507032022 10 279 3.2 9.7 0.13 4.42 0.84 92 992.1
20260507031922 10 270 4.8 9.7 0.13 4.42 0.84 92 992.1
20260507031822 10 270 1.6 8.0 0.13 4.42 0.84 93 992.1
20260507031722 10 270 1.6 3.2 0.13 4.42 0.84 93 991.9
20260507031622 10 259 1.6 8.0 0.13 4.42 0.84 93 991.9
20260507031522 10 280 1.6 8.0 0.13 4.42 0.84 93 991.9
20260507031422 10 288 1.6 11.3 0.10 4.37 0.81 93 991.9
20260507031322 10 249 4.8 11.3 0.10 4.37 0.81 93 992.0
20260507031222 10 248 3.2 11.3 0.10 4.37 0.81 93 991.9
20260507031121 10 258 1.6 3.2 0.10 4.37 0.81 93 991.9
20260507031021 10 256 1.6 4.8 0.10 4.37 0.81 93 991.9
20260507030921 10 286 1.6 4.8 0.10 4.37 0.81 93 991.9
20260507030821 10 266 3.2 4.8 0.10 4.37 0.81 93 992.0
20260507030721 10 258 3.2 4.8 0.10 4.37 0.81 93 992.0
20260507030621 10 270 3.2 4.8 0.10 4.37 0.81 93 991.8
20260507030521 10 270 3.2 4.8 0.10 4.37 0.81 93 991.7
20260507030421 10 311 1.6 4.8 0.10 4.37 0.81 93 991.6
20260507030321 10 42 0.0 0.0 0.10 4.37 0.81 93 991.7
20260507030221 10 111 0.0 0.0 0.13 4.37 0.81 93 991.7
20260507030121 10 340 0.0 0.0 0.13 4.37 0.81 93 991.8
20260507030021 10 309 0.0 1.6 0.13 4.37 0.81 93 991.7
20260507025921 10 270 0.0 1.6 0.13 4.37 0.81 93 991.8
20260507025821 10 305 0.0 1.6 0.13 4.37 0.81 93 991.7
20260507025721 10 274 1.6 1.6 0.13 4.37 0.81 93 991.8
20260507025621 10 275 0.0 1.6 0.13 4.37 0.81 93 991.8
20260507025521 10 292 0.0 1.6 0.10 4.34 0.79 93 991.7
20260507025421 10 280 0.0 3.2 0.10 4.34 0.79 93 991.7
20260507025323 10 286 0.0 3.2 0.10 4.34 0.79 93 991.8
20260507025223 10 274 0.0 3.2 0.10 4.34 0.79 93 991.6
20260507025123 10 325 0.0 1.6 0.10 4.34 0.79 93 991.7
20260507025022 10 7 0.0 1.6 0.10 4.34 0.79 93 991.8
20260507024922 10 327 1.6 3.2 0.10 4.34 0.79 93 991.7
20260507024822 10 286 0.0 3.2 0.10 4.34 0.79 93 991.7
20260507024722 10 328 0.0 1.6 0.13 4.34 0.79 93 991.6
20260507024622 10 299 0.0 1.6 0.13 4.34 0.79 93 991.7
20260507024522 10 321 0.0 1.6 0.10 4.32 0.76 93 991.7
20260507024422 10 1 0.0 1.6 0.10 4.32 0.76 93 991.8
20260507024322 10 354 0.0 1.6 0.10 4.32 0.76 93 991.7
20260507024222 10 358 0.0 1.6 0.10 4.32 0.76 93 991.6
20260507024122 10 12 0.0 3.2 0.10 4.32 0.76 93 991.5
20260507024022 10 331 0.0 3.2 0.10 4.32 0.76 93 991.6
20260507023922 10 292 0.0 1.6 0.10 4.32 0.76 93 991.7
20260507023822 10 17 0.0 1.6 0.10 4.32 0.76 93 991.6
20260507023722 10 106 0.0 1.6 0.10 4.32 0.76 93 991.5
20260507023622 10 99 0.0 1.6 0.13 4.32 0.76 93 991.6
20260507023522 10 22 0.0 0.0 0.13 4.32 0.76 93 991.6
20260507023422 10 38 0.0 0.0 0.13 4.32 0.76 93 991.7
20260507023322 10 0 0.0 0.0 0.10 4.29 0.71 93 991.7
20260507023222 10 318 0.0 0.0 0.10 4.29 0.71 93 991.6
20260507023122 10 356 0.0 1.6 0.10 4.29 0.71 93 991.6
20260507023022 10 115 0.0 3.2 0.10 4.29 0.71 93 991.6
20260507022922 10 304 0.0 3.2 0.10 4.29 0.71 93 991.5
20260507022822 10 286 0.0 1.6 0.10 4.29 0.71 93 991.6
20260507022722 10 304 0.0 1.6 0.10 4.29 0.71 93 991.5
20260507022622 10 292 0.0 1.6 0.10 4.29 0.71 93 991.5
20260507022522 10 324 0.0 1.6 0.10 4.29 0.71 93 991.5
20260507022422 10 337 0.0 1.6 0.10 4.29 0.71 93 991.6
20260507022321 10 248 0.0 1.6 0.13 4.29 0.71 93 991.5
20260507022221 10 68 0.0 1.6 0.13 4.29 0.71 93 991.5
20260507022121 10 6 0.0 1.6 0.13 4.29 0.71 93 991.4
20260507022021 10 18 0.0 1.6 0.13 4.29 0.71 93 991.4
20260507021921 10 22 0.0 0.0 0.13 4.29 0.71 93 991.5
20260507021821 10 22 0.0 1.6 0.13 4.29 0.71 92 991.4
20260507021721 10 105 0.0 1.6 0.13 4.29 0.71 92 991.4
20260507021621 10 135 0.0 1.6 0.13 4.29 0.71 92 991.5
20260507021521 10 315 0.0 1.6 0.13 4.29 0.71 92 991.5
20260507021421 10 264 0.0 1.6 0.13 4.29 0.71 92 991.4
20260507021321 10 260 0.0 3.2 0.13 4.29 0.71 92 991.4
20260507021221 10 283 0.0 3.2 0.13 4.29 0.71 92 991.5
20260507021121 10 292 0.0 0.0 0.13 4.29 0.71 92 991.5
20260507021021 10 7 0.0 1.6 0.13 4.29 0.71 92 991.4
20260507020921 10 26 0.0 1.6 0.15 4.29 0.71 92 991.3
20260507020821 10 341 0.0 0.0 0.15 4.29 0.71 92 991.4
20260507020721 10 1 0.0 0.0 0.15 4.29 0.71 92 991.3
20260507020621 10 6 0.0 1.6 0.15 4.29 0.71 92 991.4
20260507020521 10 345 0.0 1.6 0.15 4.29 0.71 92 991.4
20260507020421 10 329 0.0 1.6 0.15 4.29 0.71 92 991.5
20260507020323 10 32 0.0 1.6 0.15 4.29 0.71 92 991.4
20260507020223 10 325 0.0 1.6 0.13 4.27 0.69 92 991.3
20260507020123 10 270 0.0 1.6 0.13 4.27 0.69 92 991.3
20260507020023 10 274 0.0 0.0 0.13 4.27 0.69 92 991.3
20260507015922 10 112 0.0 0.0 0.15 4.27 0.69 92 991.3
20260507015822 10 112 0.0 0.0 0.15 4.27 0.69 92 991.3
20260507015722 10 160 0.0 0.0 0.15 4.27 0.69 92 991.3
20260507015622 10 292 0.0 0.0 0.15 4.27 0.69 92 991.3
20260507015522 10 10 0.0 0.0 0.15 4.27 0.69 92 991.3
20260507015422 10 10 0.0 0.0 0.15 4.27 0.69 92 991.3
20260507015322 10 39 0.0 1.6 0.15 4.27 0.69 92 991.4
20260507015222 10 80 0.0 1.6 0.15 4.27 0.69 92 991.2
20260507015122 10 338 0.0 1.6 0.15 4.27 0.69 91 991.2
20260507015022 10 23 0.0 1.6 0.15 4.27 0.69 91 991.2
20260507014922 10 76 0.0 3.2 0.15 4.27 0.69 91 991.1
20260507014822 10 88 0.0 3.2 0.15 4.27 0.69 91 991.2
20260507014722 10 78 0.0 1.6 0.13 4.24 0.66 91 991.2
20260507014622 10 58 0.0 1.6 0.13 4.24 0.66 91 991.2
20260507014522 10 65 0.0 3.2 0.13 4.24 0.66 91 991.2
20260507014422 10 324 0.0 3.2 0.13 4.24 0.66 91 991.1
20260507014322 10 338 0.0 1.6 0.15 4.24 0.66 91 991.1
20260507014222 10 17 0.0 1.6 0.15 4.24 0.66 91 991.0
20260507014122 10 98 0.0 1.6 0.15 4.24 0.66 91 991.1
20260507014022 10 112 0.0 4.8 0.15 4.24 0.66 91 991.1
20260507013922 10 112 1.6 4.8 0.15 4.24 0.66 91 991.2
20260507013822 10 126 0.0 1.6 0.15 4.24 0.66 91 991.2
20260507013722 10 104 0.0 0.0 0.15 4.24 0.66 92 991.2
20260507013622 10 90 0.0 0.0 0.13 4.19 0.64 92 991.2
20260507013522 10 78 0.0 0.0 0.13 4.19 0.64 92 991.1
20260507013422 10 68 0.0 0.0 0.15 4.19 0.64 92 991.0
20260507013322 10 51 0.0 1.6 0.15 4.19 0.64 92 991.1
20260507013222 10 23 0.0 1.6 0.15 4.19 0.64 92 991.1
20260507013122 10 22 0.0 0.0 0.15 4.19 0.64 92 991.2
20260507013022 10 12 0.0 0.0 0.15 4.19 0.64 92 991.2
20260507012921 10 18 0.0 1.6 0.15 4.19 0.64 92 991.1
20260507012821 10 67 0.0 3.2 0.15 4.19 0.64 92 991.1
20260507012721 10 80 0.0 3.2 0.15 4.19 0.64 92 991.1
20260507012621 10 69 0.0 1.6 0.18 4.19 0.64 92 991.1
20260507012521 10 45 0.0 1.6 0.18 4.19 0.64 92 991.0
20260507012421 10 45 0.0 0.0 0.18 4.19 0.64 92 991.1
20260507012321 10 82 0.0 3.2 0.15 4.17 0.61 92 991.1
20260507012221 10 113 1.6 3.2 0.15 4.17 0.61 92 991.1
20260507012121 10 40 0.0 1.6 0.15 4.17 0.61 92 991.1
20260507012021 10 89 0.0 1.6 0.15 4.17 0.61 92 991.0
20260507011921 10 5 0.0 0.0 0.15 4.17 0.61 92 991.0
20260507011821 10 338 0.0 3.2 0.15 4.17 0.61 92 991.0
20260507011721 10 58 0.0 3.2 0.15 4.17 0.61 92 991.1
20260507011621 10 60 0.0 1.6 0.18 4.17 0.61 92 991.1
20260507011521 10 45 0.0 1.6 0.18 4.17 0.61 92 991.0
20260507011421 10 61 0.0 1.6 0.18 4.17 0.61 92 991.0
20260507011321 10 67 0.0 1.6 0.18 4.17 0.61 92 991.1
20260507011221 10 342 0.0 1.6 0.18 4.17 0.61 92 991.0
20260507011121 10 112 0.0 1.6 0.18 4.17 0.61 92 991.1
20260507011021 10 112 0.0 3.2 0.20 4.17 0.61 92 991.1
20260507010921 10 112 1.6 3.2 0.18 4.14 0.56 92 991.0
20260507010821 10 97 0.0 1.6 0.18 4.14 0.56 92 991.1
20260507010721 10 62 0.0 1.6 0.18 4.14 0.56 92 990.9
20260507010621 10 137 0.0 1.6 0.18 4.14 0.56 92 991.0
20260507010523 10 94 0.0 1.6 0.18 4.14 0.56 92 991.0
20260507010423 10 60 0.0 1.6 0.18 4.14 0.56 92 990.9
20260507010323 10 68 0.0 3.2 0.18 4.14 0.56 92 991.0
20260507010222 10 113 0.0 3.2 0.18 4.14 0.56 92 990.9
20260507010122 10 78 0.0 0.0 0.18 4.14 0.56 92 991.0
20260507010022 10 23 0.0 0.0 0.20 4.14 0.56 92 990.9
20260507005922 10 16 0.0 0.0 0.18 4.11 0.53 92 990.9
20260507005822 10 0 0.0 0.0 0.18 4.11 0.53 92 991.0
20260507005722 10 0 0.0 0.0 0.18 4.11 0.53 92 990.9
20260507005622 10 23 0.0 0.0 0.18 4.11 0.53 92 991.1
20260507005522 10 68 0.0 1.6 0.18 4.11 0.53 92 991.1
20260507005422 10 68 0.0 1.6 0.18 4.11 0.53 92 991.1
20260507005322 10 85 0.0 0.0 0.18 4.11 0.53 92 991.0
20260507005222 10 98 0.0 0.0 0.18 4.11 0.53 92 990.9
20260507005122 10 105 0.0 1.6 0.18 4.11 0.53 92 991.0
20260507005022 10 55 0.0 1.6 0.20 4.11 0.53 92 991.0
20260507004922 10 14 0.0 0.0 0.20 4.11 0.53 92 991.0
20260507004822 10 66 0.0 0.0 0.20 4.11 0.53 92 991.0
20260507004722 10 9 0.0 0.0 0.20 4.11 0.53 92 991.0
20260507004622 10 326 0.0 0.0 0.20 4.11 0.53 92 991.1
20260507004522 10 339 0.0 0.0 0.20 4.11 0.53 92 991.1
20260507004422 10 73 0.0 0.0 0.20 4.11 0.53 92 990.9
20260507004321 10 38 0.0 0.0 0.18 4.09 0.51 92 991.0
20260507004221 10 358 0.0 0.0 0.18 4.09 0.51 92 991.0
20260507004121 10 309 0.0 1.6 0.20 4.09 0.51 92 990.9
20260507004021 10 337 0.0 1.6 0.20 4.09 0.51 92 991.0
20260507003921 10 331 0.0 1.6 0.20 4.09 0.51 92 990.9
20260507003821 10 32 0.0 1.6 0.20 4.09 0.51 92 991.0
20260507003721 10 156 0.0 3.2 0.20 4.09 0.51 92 991.1
20260507003621 10 68 0.0 3.2 0.20 4.09 0.51 92 991.0
20260507003521 10 55 0.0 0.0 0.20 4.09 0.51 92 991.0
20260507003421 10 22 0.0 0.0 0.20 4.04 0.48 92 990.9
20260507003321 10 2 0.0 1.6 0.20 4.04 0.48 92 991.0
20260507003221 10 356 0.0 1.6 0.20 4.04 0.48 92 991.1
20260507003121 10 102 0.0 1.6 0.20 4.04 0.48 92 990.9
20260507003021 10 26 0.0 1.6 0.23 4.04 0.48 92 990.9
20260507002921 10 346 0.0 1.6 0.23 4.04 0.48 92 990.9
20260507002821 10 45 0.0 1.6 0.23 4.04 0.48 92 990.9
20260507002721 10 25 0.0 1.6 0.23 4.04 0.48 92 990.9
20260507002621 10 350 0.0 1.6 0.20 4.01 0.46 92 991.0
20260507002521 10 305 0.0 1.6 0.20 4.01 0.46 92 990.9
20260507002421 10 292 0.0 1.6 0.23 4.01 0.46 92 990.9
20260507002323 10 82 0.0 1.6 0.23 4.01 0.46 92 990.9
20260507002223 10 0 0.0 1.6 0.23 4.01 0.46 92 990.8
20260507002123 10 337 0.0 1.6 0.23 4.01 0.46 92 990.8
20260507002022 10 317 1.6 3.2 0.23 4.01 0.46 92 990.9
20260507001922 10 329 0.0 3.2 0.23 4.01 0.46 92 991.0
20260507001822 10 267 0.0 1.6 0.28 4.01 0.46 92 990.9
20260507001722 10 291 0.0 3.2 0.28 4.01 0.46 92 990.9
20260507001622 10 279 1.6 4.8 0.23 3.99 0.43 92 990.9
20260507001522 10 270 1.6 4.8 0.23 3.99 0.43 92 990.9
20260507001422 10 270 1.6 8.0 0.23 3.99 0.43 92 990.8
20260507001322 10 275 1.6 8.0 0.23 3.99 0.43 92 991.0
20260507001222 10 10 1.6 4.8 0.23 3.99 0.43 92 991.0
20260507001122 10 311 1.6 4.8 0.23 3.99 0.43 92 990.8
20260507001022 10 0 0.0 1.6 0.23 3.96 0.38 92 990.8
20260507000922 10 282 1.6 3.2 0.23 3.96 0.38 92 990.9
20260507000822 10 270 1.6 3.2 0.23 3.96 0.38 91 990.8
20260507000722 10 270 1.6 3.2 0.23 3.96 0.38 91 990.9
20260507000622 10 270 1.6 3.2 0.23 3.96 0.38 91 990.7
20260507000522 10 270 1.6 3.2 0.23 3.96 0.38 91 990.8
20260507000422 10 270 1.6 3.2 0.23 3.96 0.38 91 990.7
20260507000322 10 270 1.6 3.2 0.23 3.96 0.38 91 990.7
20260507000222 10 270 1.6 3.2 0.23 3.96 0.38 91 990.8
20260507000122 10 274 1.6 3.2 0.23 3.96 0.38 91 990.9
20260507000023 10 292 1.6 1.6 0.20 3.94 0.36 91 990.9
20260506235922 10 292 1.6 3.2 0.20 3.94 0.36 91 990.8
20260506235821 10 292 0.0 3.2 0.20 3.94 0.36 91 990.7
20260506235721 10 276 0.0 3.2 0.23 3.94 0.36 91 990.7
20260506235621 10 270 1.6 4.8 0.23 3.94 0.36 91 990.7
20260506235521 10 274 1.6 4.8 0.23 3.94 0.36 91 990.7
20260506235421 10 292 1.6 3.2 0.23 3.94 0.36 91 990.7
20260506235321 10 290 1.6 3.2 0.23 3.94 0.36 91 990.7
20260506235221 10 273 1.6 1.6 0.23 3.94 0.36 91 990.8
20260506235121 10 292 0.0 3.2 0.23 3.94 0.36 91 990.7
20260506235021 10 261 0.0 3.2 0.20 3.91 0.33 91 990.7
20260506234921 10 332 0.0 1.6 0.23 3.91 0.33 91 990.6
20260506234821 10 292 0.0 0.0 0.23 3.91 0.33 91 990.6
20260506234721 10 292 0.0 0.0 0.23 3.91 0.33 91 990.7
20260506234621 10 292 0.0 1.6 0.23 3.91 0.33 91 990.7
20260506234521 10 292 0.0 1.6 0.23 3.91 0.33 91 990.6
20260506234421 10 295 0.0 1.6 0.23 3.91 0.33 91 990.7
20260506234321 10 56 0.0 1.6 0.23 3.91 0.33 91 990.6
20260506234221 10 315 0.0 0.0 0.23 3.91 0.33 91 990.7
20260506234123 10 296 0.0 0.0 0.23 3.86 0.30 91 990.6
20260506234023 10 292 0.0 1.6 0.23 3.86 0.30 91 990.6
20260506233923 10 284 0.0 1.6 0.23 3.86 0.30 91 990.6
20260506233823 10 270 0.0 1.6 0.23 3.86 0.30 90 990.7
20260506233722 10 266 0.0 1.6 0.23 3.86 0.30 90 990.6
20260506233622 10 251 1.6 3.2 0.23 3.86 0.30 90 990.5
20260506233522 10 262 1.6 3.2 0.23 3.86 0.30 90 990.7
20260506233422 10 264 0.0 3.2 0.20 3.84 0.28 90 990.6
20260506233322 10 320 0.0 0.0 0.20 3.84 0.28 90 990.5
20260506233222 10 83 0.0 0.0 0.20 3.84 0.28 90 990.5
20260506233122 10 12 0.0 0.0 0.20 3.84 0.28 90 990.6
20260506233022 10 32 0.0 0.0 0.18 3.81 0.23 90 990.6
20260506232922 10 351 0.0 1.6 0.18 3.81 0.23 90 990.5
20260506232822 10 312 0.0 1.6 0.18 3.81 0.23 90 990.5
20260506232722 10 315 0.0 1.6 0.18 3.81 0.23 90 990.6
20260506232622 10 346 0.0 1.6 0.18 3.81 0.23 90 990.5
20260506232522 10 333 0.0 1.6 0.18 3.81 0.23 90 990.5
20260506232422 10 6 0.0 0.0 0.15 3.78 0.20 89 990.5
20260506232322 10 10 0.0 1.6 0.15 3.78 0.20 89 990.5
20260506232222 10 284 0.0 1.6 0.15 3.78 0.20 89 990.5
20260506232122 10 306 0.0 1.6 0.15 3.78 0.20 89 990.5
20260506232022 10 357 0.0 0.0 0.15 3.78 0.20 89 990.4
20260506231922 10 354 0.0 0.0 0.15 3.78 0.20 89 990.4
20260506231822 10 11 0.0 3.2 0.13 3.76 0.18 89 990.3
20260506231722 10 113 0.0 3.2 0.15 3.76 0.18 89 990.3
20260506231622 10 126 0.0 1.6 0.15 3.76 0.18 89 990.4
20260506231522 10 84 0.0 0.0 0.15 3.76 0.18 89 990.4
20260506231422 10 111 0.0 1.6 0.15 3.76 0.18 89 990.3
20260506231322 10 317 0.0 1.6 0.15 3.76 0.18 89 990.4
20260506231222 10 312 0.0 0.0 0.15 3.76 0.18 89 990.3
20260506231122 10 317 0.0 0.0 0.15 3.76 0.18 89 990.4
20260506231021 10 0 0.0 0.0 0.13 3.71 0.15 89 990.4
20260506230921 10 0 0.0 0.0 0.13 3.71 0.15 89 990.2
20260506230821 10 332 0.0 1.6 0.13 3.71 0.15 89 990.3
20260506230721 10 340 0.0 1.6 0.13 3.71 0.15 89 990.2
20260506230621 10 272 0.0 1.6 0.15 3.71 0.15 89 990.4
20260506230521 10 331 0.0 1.6 0.15 3.71 0.15 89 990.4
20260506230421 10 330 0.0 0.0 0.15 3.71 0.15 89 990.3
20260506230321 10 48 0.0 0.0 0.15 3.71 0.15 88 990.4
20260506230221 10 90 0.0 4.8 0.15 3.71 0.15 88 990.4
20260506230121 10 90 1.6 4.8 0.15 3.71 0.15 88 990.5
20260506230021 10 326 0.0 4.8 0.15 3.71 0.15 88 990.4
20260506225921 10 20 1.6 4.8 0.00 3.71 0.15 88 990.3
20260506225821 10 78 0.0 4.8 0.00 3.71 0.15 88 990.3
20260506225721 10 88 0.0 1.6 0.00 3.68 0.13 88 990.3
20260506225621 10 132 1.6 4.8 0.00 3.68 0.13 87 990.3
20260506225521 10 301 1.6 9.7 0.00 3.68 0.13 87 990.3
20260506225421 10 10 3.2 9.7 0.00 3.68 0.13 88 990.2
20260506225321 10 129 1.6 9.7 0.00 3.68 0.13 88 990.4
20260506225221 10 135 1.6 4.8 0.00 3.68 0.13 88 990.2
20260506225121 10 116 1.6 3.2 0.00 3.68 0.13 88 990.2
20260506225021 10 298 1.6 3.2 0.00 3.68 0.13 87 990.3
20260506224921 10 112 1.6 3.2 0.00 3.66 0.10 88 990.4
20260506224821 10 132 1.6 4.8 0.00 3.66 0.10 87 990.2
20260506224721 10 148 1.6 11.3 0.00 3.66 0.10 87 990.1
20260506224621 10 140 1.6 11.3 0.00 3.66 0.10 88 990.3
20260506224523 10 133 1.6 4.8 0.00 3.66 0.10 88 990.3
20260506224423 10 210 3.2 4.8 0.00 3.66 0.10 88 990.3
20260506224323 10 99 1.6 3.2 0.00 3.66 0.10 88 990.3
20260506224223 10 148 1.6 4.8 0.00 3.66 0.10 87 990.2
20260506224123 10 115 3.2 4.8 0.00 3.63 0.05 87 990.2
20260506224022 10 78 3.2 8.0 0.00 3.63 0.05 87 990.3
20260506223922 10 112 0.0 1.6 0.00 3.63 0.05 88 990.2
20260506223822 10 113 1.6 8.0 0.00 3.63 0.05 88 990.4
20260506223722 10 150 1.6 8.0 0.00 3.63 0.05 88 990.3
20260506223622 10 134 0.0 3.2 0.00 3.63 0.05 88 990.3
20260506223522 10 126 1.6 8.0 0.00 3.63 0.05 87 990.2
20260506223422 10 122 3.2 8.0 0.00 3.63 0.05 87 990.1
20260506223322 10 148 1.6 8.0 0.00 3.63 0.05 88 990.3
20260506223222 10 149 1.6 8.0 0.00 3.63 0.05 88 990.2
20260506223122 11 165 3.2 8.0 0.00 3.63 0.05 88 990.4
20260506223022 11 321 1.6 4.8 0.00 3.63 0.05 88 990.3
20260506222922 11 358 3.2 4.8 0.00 3.63 0.05 88 990.4
20260506222822 11 115 1.6 4.8 0.00 3.63 0.05 88 990.2
20260506222722 11 112 1.6 3.2 0.00 3.63 0.05 88 990.2
20260506222622 11 147 1.6 8.0 0.00 3.63 0.05 87 990.2
20260506222522 11 93 3.2 8.0 0.00 3.63 0.05 87 990.3
20260506222422 10 124 3.2 8.0 0.00 3.63 0.05 87 990.4
20260506222322 10 129 4.8 8.0 0.00 3.63 0.05 87 990.3
20260506222222 10 123 3.2 8.0 0.00 3.63 0.05 88 990.3
20260506222122 10 118 1.6 3.2 0.00 3.63 0.05 88 990.2
20260506222022 10 128 1.6 4.8 0.00 3.63 0.05 88 990.2
20260506221922 10 100 1.6 4.8 0.00 3.63 0.05 88 990.1
20260506221822 10 87 1.6 4.8 0.00 3.63 0.05 88 990.3
20260506221722 10 133 1.6 4.8 0.00 3.61 0.03 88 990.2
20260506221622 10 124 3.2 8.0 0.00 3.61 0.03 88 990.2
20260506221522 10 138 3.2 8.0 0.00 3.61 0.03 88 990.2
20260506221422 10 139 3.2 4.8 0.00 3.61 0.03 89 990.3
20260506221322 10 158 1.6 4.8 0.00 3.61 0.03 89 990.3
20260506221221 10 125 1.6 4.8 0.00 3.61 0.03 89 990.3
20260506221121 10 112 0.0 1.6 0.00 3.61 0.03 89 990.2
20260506221021 10 124 0.0 1.6 0.00 3.61 0.03 89 990.3
20260506220921 10 113 0.0 1.6 0.00 3.61 0.03 89 990.2
20260506220821 10 128 1.6 4.8 0.00 3.61 0.03 89 990.2
20260506220721 10 112 0.0 1.6 0.00 3.61 0.03 89 990.2
20260506220621 10 112 1.6 3.2 0.00 3.58 0.00 89 990.2
20260506220521 10 112 1.6 3.2 0.00 3.58 0.00 89 990.3
20260506220421 10 84 1.6 3.2 0.00 3.58 0.00 89 990.3
20260506220322 10 112 1.6 3.2 0.00 3.58 0.00 89 990.2
20260506220221 10 114 0.0 4.8 0.00 3.58 0.00 89 990.4
20260506220121 10 134 3.2 4.8 0.00 3.58 0.00 88 990.3
20260506220021 10 135 1.6 4.8 0.00 3.58 0.00 89 990.3
20260506215921 10 135 1.6 3.2 0.33 3.58 3.58 89 990.3
20260506215821 10 76 0.0 3.2 0.33 3.58 3.58 89 990.3
20260506215721 10 112 0.0 1.6 0.33 3.58 3.58 89 990.4
20260506215621 10 129 0.0 1.6 0.36 3.58 3.58 89 990.3
20260506215521 10 315 0.0 1.6 0.33 3.53 3.53 89 990.2
20260506215421 10 298 1.6 4.8 0.33 3.53 3.53 89 990.3
20260506215323 10 112 1.6 4.8 0.33 3.53 3.53 89 990.2
20260506215223 10 133 1.6 4.8 0.33 3.53 3.53 89 990.2
20260506215123 10 124 1.6 4.8 0.36 3.53 3.53 89 990.3
20260506215022 10 79 1.6 3.2 0.36 3.53 3.53 89 990.3
20260506214922 10 133 1.6 3.2 0.36 3.53 3.53 89 990.2
20260506214822 10 135 1.6 4.8 0.36 3.53 3.53 89 990.2
20260506214722 10 155 1.6 4.8 0.38 3.53 3.53 89 990.3
20260506214622 10 221 0.0 4.8 0.36 3.51 3.51 89 990.1
20260506214522 10 137 1.6 4.8 0.36 3.51 3.51 89 990.2
20260506214422 10 112 1.6 4.8 0.36 3.51 3.51 89 990.2
20260506214322 10 112 0.0 1.6 0.38 3.51 3.51 89 990.3
20260506214222 10 124 0.0 3.2 0.38 3.51 3.51 89 990.3
20260506214122 10 150 1.6 3.2 0.38 3.51 3.51 89 990.2
20260506214022 10 213 0.0 4.8 0.36 3.48 3.48 89 990.2
20260506213922 10 104 1.6 4.8 0.36 3.48 3.48 89 990.3
20260506213822 10 76 0.0 0.0 0.36 3.48 3.48 89 990.3
20260506213722 10 10 0.0 3.2 0.38 3.48 3.48 89 990.2
20260506213622 10 112 1.6 3.2 0.36 3.45 3.45 89 990.2
20260506213522 10 96 1.6 8.0 0.38 3.45 3.45 89 990.3
20260506213422 10 52 1.6 8.0 0.38 3.45 3.45 89 990.3
20260506213322 10 128 1.6 8.0 0.38 3.45 3.45 89 990.3
20260506213222 10 97 0.0 8.0 0.38 3.45 3.45 89 990.4
20260506213122 10 97 0.0 3.2 0.43 3.45 3.45 89 990.3
20260506213022 10 16 0.0 3.2 0.43 3.45 3.45 89 990.4
20260506212922 10 56 0.0 3.2 0.43 3.45 3.45 89 990.4
20260506212822 10 122 1.6 3.2 0.43 3.43 3.43 89 990.3
20260506212722 11 158 1.6 3.2 0.43 3.43 3.43 89 990.4
20260506212622 10 117 3.2 4.8 0.46 3.43 3.43 89 990.5
20260506212522 10 137 3.2 4.8 0.46 3.43 3.43 89 990.4
20260506212422 10 115 0.0 3.2 0.46 3.43 3.43 89 990.3
20260506212322 10 104 1.6 4.8 0.43 3.38 3.38 89 990.2
20260506212221 10 131 1.6 4.8 0.43 3.38 3.38 89 990.2
20260506212121 10 143 1.6 3.2 0.43 3.38 3.38 89 990.3
20260506212021 10 125 1.6 3.2 0.43 3.38 3.38 89 990.3
20260506211921 10 112 1.6 3.2 0.38 3.35 3.35 89 990.3
20260506211821 10 97 1.6 1.6 0.38 3.35 3.35 89 990.3
20260506211721 10 124 0.0 3.2 0.43 3.35 3.35 89 990.4
20260506211621 10 106 1.6 4.8 0.43 3.35 3.35 89 990.3
20260506211521 10 99 1.6 4.8 0.43 3.33 3.33 89 990.2
20260506211421 10 147 1.6 3.2 0.43 3.33 3.33 89 990.2
20260506211321 10 157 1.6 4.8 0.43 3.33 3.33 89 990.3
20260506211221 10 123 1.6 4.8 0.43 3.33 3.33 89 990.4
20260506211121 10 135 1.6 3.2 0.43 3.30 3.30 89 990.3
20260506211021 10 135 0.0 1.6 0.43 3.30 3.30 89 990.3
20260506210921 10 135 0.0 1.6 0.43 3.30 3.30 89 990.4
20260506210821 10 104 0.0 1.6 0.46 3.30 3.30 89 990.3
20260506210721 10 120 0.0 1.6 0.46 3.30 3.30 89 990.3
20260506210621 11 353 1.6 3.2 0.48 3.30 3.30 89 990.3
20260506210521 11 307 1.6 3.2 0.48 3.30 3.30 89 990.4
20260506210421 11 170 1.6 3.2 0.48 3.30 3.30 89 990.3
20260506210321 11 102 1.6 8.0 0.48 3.28 3.28 89 990.4
20260506210221 11 90 0.0 8.0 0.48 3.28 3.28 89 990.4
20260506210121 11 100 0.0 1.6 0.48 3.28 3.28 89 990.3
20260506210023 11 349 0.0 4.8 0.46 3.25 3.25 88 990.3
20260506205923 11 22 1.6 4.8 0.46 3.25 3.25 88 990.3
20260506205822 11 118 1.6 3.2 0.48 3.25 3.25 88 990.3
20260506205722 11 112 1.6 3.2 0.48 3.25 3.25 88 990.4
20260506205622 11 112 0.0 4.8 0.46 3.20 3.20 88 990.3
20260506205522 11 85 0.0 4.8 0.48 3.20 3.20 88 990.3
20260506205422 11 109 0.0 3.2 0.48 3.20 3.20 88 990.3
20260506205322 11 177 1.6 3.2 0.48 3.20 3.20 88 990.2
20260506205222 11 137 3.2 9.7 0.48 3.20 3.20 87 990.3
20260506205122 11 109 3.2 9.7 0.48 3.17 3.17 87 990.2
20260506205022 11 96 1.6 4.8 0.48 3.17 3.17 88 990.2
20260506204922 11 136 3.2 11.3 0.51 3.17 3.17 87 990.1
20260506204822 11 146 1.6 11.3 0.51 3.17 3.17 88 990.2
20260506204722 11 143 1.6 3.2 0.51 3.15 3.15 88 990.3
20260506204622 11 119 3.2 4.8 0.51 3.15 3.15 88 990.3
20260506204522 11 112 1.6 4.8 0.51 3.15 3.15 89 990.3
20260506204422 11 123 1.6 3.2 0.53 3.15 3.15 89 990.3
20260506204322 11 158 1.6 3.2 0.51 3.12 3.12 88 990.3
20260506204222 11 141 1.6 3.2 0.51 3.12 3.12 88 990.3
20260506204122 11 134 1.6 3.2 0.51 3.12 3.12 88 990.3
20260506204022 11 135 1.6 3.2 0.51 3.12 3.12 88 990.3
20260506203922 11 279 1.6 4.8 0.51 3.12 3.12 88 990.3
20260506203822 11 34 1.6 4.8 0.53 3.12 3.12 88 990.3
20260506203722 11 105 1.6 3.2 0.51 3.10 3.10 89 990.3
20260506203622 11 92 1.6 3.2 0.51 3.10 3.10 89 990.2
20260506203522 11 93 3.2 8.0 0.51 3.05 3.05 88 990.3
20260506203421 11 127 3.2 8.0 0.51 3.05 3.05 89 990.3
20260506203321 11 124 1.6 8.0 0.51 3.05 3.05 89 990.3
20260506203221 11 106 0.0 3.2 0.53 3.05 3.05 89 990.3
20260506203121 11 97 1.6 3.2 0.51 3.02 3.02 89 990.4
20260506203021 11 129 1.6 4.8 0.51 3.02 3.02 89 990.3
20260506202921 11 124 1.6 4.8 0.53 3.02 3.02 89 990.3
20260506202821 11 127 1.6 9.7 0.51 3.00 3.00 89 990.2
20260506202721 11 120 3.2 9.7 0.53 3.00 3.00 88 990.4
20260506202621 11 149 3.2 8.0 0.51 2.97 2.97 88 990.5
20260506202521 11 132 1.6 8.0 0.51 2.97 2.97 89 990.4
20260506202421 11 102 1.6 8.0 0.51 2.97 2.97 89 990.3
20260506202321 11 160 1.6 4.8 0.53 2.97 2.97 89 990.2
20260506202221 11 133 1.6 3.2 0.53 2.97 2.97 88 990.3
20260506202121 11 127 1.6 1.6 0.53 2.97 2.97 89 990.3
20260506202021 11 112 1.6 1.6 0.56 2.97 2.97 89 990.3
20260506201921 11 81 1.6 3.2 0.61 2.97 2.97 89 990.3
20260506201821 11 148 0.0 3.2 0.61 2.97 2.97 89 990.3
20260506201723 11 125 1.6 9.7 0.56 2.95 2.95 88 990.4
20260506201623 11 127 3.2 9.7 0.61 2.95 2.95 88 990.3
20260506201523 11 123 1.6 4.8 0.56 2.92 2.92 89 990.4
20260506201423 11 121 1.6 3.2 0.61 2.92 2.92 89 990.4
20260506201323 11 151 3.2 11.3 0.61 2.92 2.92 88 990.2
20260506201223 11 135 1.6 11.3 0.64 2.92 2.92 89 990.3
20260506201122 11 124 1.6 3.2 0.61 2.87 2.87 89 990.3
20260506201022 11 135 1.6 4.8 0.61 2.87 2.87 89 990.2
20260506200922 11 122 3.2 8.0 0.61 2.87 2.87 89 990.3
20260506200822 11 122 1.6 8.0 0.61 2.84 2.84 89 990.3
20260506200722 11 135 1.6 4.8 0.61 2.84 2.84 89 990.4
20260506200622 11 96 0.0 1.6 0.56 2.82 2.82 89 990.4
20260506200522 11 106 0.0 8.0 0.61 2.82 2.82 88 990.2
20260506200422 11 128 3.2 9.7 0.61 2.82 2.82 88 990.3
20260506200322 11 86 3.2 9.7 0.56 2.79 2.79 88 990.2
20260506200222 11 95 1.6 8.0 0.61 2.79 2.79 89 990.2
20260506200122 11 112 1.6 4.8 0.61 2.79 2.79 89 990.3
20260506200022 11 94 0.0 3.2 0.64 2.79 2.79 89 990.3
20260506195922 11 71 1.6 4.8 0.64 2.79 2.79 89 990.2
20260506195822 11 292 1.6 4.8 0.64 2.77 2.77 89 990.3
20260506195722 11 85 1.6 3.2 0.64 2.77 2.77 89 990.3
20260506195622 11 121 1.6 3.2 0.64 2.77 2.77 89 990.2
20260506195522 11 167 1.6 8.0 0.61 2.72 2.72 89 990.2
20260506195422 11 180 3.2 8.0 0.61 2.72 2.72 89 990.2
20260506195322 11 150 1.6 8.0 0.64 2.72 2.72 89 990.2
20260506195222 11 271 1.6 4.8 0.64 2.72 2.72 89 990.2
20260506195122 11 344 0.0 4.8 0.64 2.69 2.69 90 990.2
20260506195022 11 315 0.0 1.6 0.64 2.69 2.69 90 990.3
20260506194922 11 101 0.0 1.6 0.64 2.67 2.67 90 990.2
20260506194822 11 111 0.0 3.2 0.66 2.67 2.67 89 990.2
20260506194721 11 112 1.6 3.2 0.64 2.64 2.64 90 990.2
20260506194621 11 118 1.6 3.2 0.66 2.64 2.64 90 990.2
20260506194521 11 79 0.0 3.2 0.66 2.64 2.64 90 990.2
20260506194421 11 326 1.6 3.2 0.66 2.62 2.62 90 990.2
20260506194321 11 82 1.6 4.8 0.66 2.62 2.62 89 990.2
20260506194221 11 81 1.6 4.8 0.66 2.62 2.62 89 990.2
20260506194121 11 108 1.6 3.2 0.66 2.62 2.62 90 990.1
20260506194021 11 46 1.6 3.2 0.69 2.62 2.62 90 990.1
20260506193921 11 145 0.0 1.6 0.69 2.62 2.62 90 990.2
20260506193821 11 103 0.0 1.6 0.66 2.59 2.59 90 990.1
20260506193721 11 98 0.0 3.2 0.69 2.59 2.59 90 990.1
20260506193621 11 127 0.0 3.2 0.69 2.59 2.59 90 990.0
20260506193521 11 118 0.0 1.6 0.66 2.54 2.54 90 990.0
20260506193421 11 338 1.6 4.8 0.66 2.54 2.54 90 990.0
20260506193321 11 93 1.6 4.8 0.69 2.54 2.54 90 990.1
20260506193221 11 7 1.6 4.8 0.66 2.51 2.51 90 990.1
20260506193121 11 332 1.6 4.8 0.66 2.51 2.51 90 990.1
20260506193021 11 76 0.0 1.6 0.66 2.51 2.51 90 990.2
20260506192921 11 79 1.6 1.6 0.64 2.49 2.49 90 990.2
20260506192821 11 41 0.0 1.6 0.66 2.49 2.49 90 990.0
20260506192723 11 112 0.0 1.6 0.64 2.46 2.46 90 990.0
20260506192623 11 112 0.0 1.6 0.64 2.46 2.46 89 990.0
20260506192523 11 112 0.0 3.2 0.64 2.46 2.46 89 990.0
20260506192423 11 90 1.6 3.2 0.64 2.46 2.46 90 989.9
20260506192323 11 65 0.0 3.2 0.64 2.44 2.44 89 990.0
20260506192222 11 90 0.0 0.0 0.64 2.44 2.44 89 989.9
20260506192122 11 101 0.0 1.6 0.64 2.44 2.44 89 989.9
20260506192022 11 286 0.0 3.2 0.61 2.39 2.39 89 989.9
20260506191922 11 229 0.0 3.2 0.56 2.36 2.36 89 989.9
20260506191822 11 256 1.6 4.8 0.56 2.36 2.36 89 989.7
20260506191722 11 99 0.0 4.8 0.56 2.36 2.36 89 989.7
20260506191622 11 16 1.6 4.8 0.53 2.34 2.34 89 989.8
20260506191522 11 92 0.0 4.8 0.53 2.34 2.34 89 989.7
20260506191422 11 96 1.6 3.2 0.51 2.31 2.31 88 989.8
20260506191322 11 115 3.2 8.0 0.53 2.31 2.31 88 989.7
20260506191222 11 215 1.6 4.8 0.51 2.29 2.29 89 989.8
20260506191122 11 158 1.6 4.8 0.51 2.29 2.29 89 989.8
20260506191022 11 171 1.6 4.8 0.51 2.29 2.29 89 989.7
20260506190922 11 162 1.6 3.2 0.51 2.29 2.29 89 989.7
20260506190822 11 122 1.6 3.2 0.48 2.26 2.26 89 989.5
20260506190722 11 1 1.6 3.2 0.51 2.26 2.26 89 989.6
20260506190622 11 132 1.6 3.2 0.51 2.26 2.26 89 989.8
20260506190522 11 52 0.0 0.0 0.48 2.21 2.21 89 989.8
20260506190422 11 45 0.0 1.6 0.48 2.21 2.21 89 989.7
20260506190322 11 45 1.6 8.0 0.48 2.21 2.21 89 989.6
20260506190222 11 59 1.6 8.0 0.46 2.18 2.18 88 989.6
20260506190122 11 112 1.6 8.0 0.48 2.18 2.18 89 989.6
20260506190022 11 115 1.6 1.6 0.46 2.16 2.16 89 989.6
20260506185922 11 135 1.6 3.2 0.46 2.16 2.16 89 989.7
20260506185821 11 118 0.0 3.2 0.43 2.13 2.13 89 989.5
20260506185721 11 61 0.0 3.2 0.43 2.13 2.13 89 989.5
20260506185621 11 96 1.6 8.0 0.43 2.13 2.13 89 989.4
20260506185521 11 89 1.6 8.0 0.43 2.13 2.13 88 989.4
20260506185421 11 39 0.0 3.2 0.43 2.13 2.13 89 989.5
20260506185321 11 90 1.6 3.2 0.43 2.11 2.11 89 989.5
20260506185221 11 123 0.0 3.2 0.43 2.11 2.11 89 989.4
20260506185121 11 151 0.0 3.2 0.38 2.06 2.06 89 989.4
20260506185021 11 159 1.6 4.8 0.38 2.06 2.06 89 989.5
20260506184921 11 165 1.6 4.8 0.36 2.03 2.03 88 989.3
20260506184821 11 91 0.0 4.8 0.33 2.01 2.01 88 989.3
20260506184721 11 31 1.6 4.8 0.33 2.01 2.01 88 989.3
20260506184621 11 255 1.6 4.8 0.30 1.98 1.98 89 989.3
20260506184521 11 115 0.0 3.2 0.30 1.98 1.98 89 989.3
20260506184421 11 112 0.0 3.2 0.28 1.96 1.96 88 989.2
20260506184321 11 100 1.6 4.8 0.28 1.96 1.96 88 989.2
20260506184221 11 90 1.6 4.8 0.30 1.96 1.96 88 989.2
20260506184121 11 121 0.0 4.8 0.30 1.96 1.96 89 989.3
20260506184021 11 114 0.0 1.6 0.28 1.93 1.93 89 989.4
20260506183923 11 155 1.6 3.2 0.28 1.93 1.93 89 989.1
20260506183823 11 112 1.6 3.2 0.28 1.93 1.93 89 989.3
20260506183723 11 343 0.0 1.6 0.23 1.88 1.88 89 989.3
20260506183622 11 338 0.0 1.6 0.23 1.88 1.88 89 989.2
20260506183522 11 338 0.0 1.6 0.23 1.88 1.88 89 989.2
20260506183422 11 38 0.0 1.6 0.23 1.88 1.88 89 989.1
20260506183322 11 347 0.0 1.6 0.20 1.85 1.85 88 989.2
20260506183222 11 96 0.0 8.0 0.20 1.85 1.85 88 989.2
20260506183122 11 135 4.8 8.0 0.23 1.85 1.85 87 989.2
20260506183022 11 135 4.8 8.0 0.23 1.85 1.85 87 989.2
20260506182922 11 135 3.2 8.0 0.23 1.85 1.85 87 989.0
20260506182822 11 116 1.6 4.8 0.20 1.83 1.83 88 989.0
20260506182722 11 90 0.0 4.8 0.20 1.83 1.83 88 989.0
20260506182622 11 150 1.6 8.0 0.20 1.83 1.83 87 989.1
20260506182522 11 142 1.6 8.0 0.20 1.83 1.83 87 989.0
20260506182422 11 340 3.2 8.0 0.20 1.83 1.83 87 989.0
20260506182322 11 356 3.2 8.0 0.18 1.80 1.80 87 989.1
20260506182222 11 133 1.6 3.2 0.18 1.80 1.80 88 989.0
20260506182122 11 93 0.0 1.6 0.18 1.80 1.80 88 989.1
20260506182022 11 108 0.0 1.6 0.18 1.80 1.80 88 989.1
20260506181922 11 88 0.0 1.6 0.18 1.80 1.80 88 988.9
20260506181822 11 69 1.6 4.8 0.18 1.80 1.80 87 989.0
20260506181722 11 88 0.0 4.8 0.18 1.80 1.80 88 988.9
20260506181622 11 102 0.0 3.2 0.18 1.80 1.80 88 988.9
20260506181522 11 64 0.0 3.2 0.18 1.80 1.80 88 988.9
20260506181422 11 7 1.6 4.8 0.18 1.80 1.80 88 988.7
20260506181321 11 158 1.6 4.8 0.15 1.78 1.78 88 988.8
20260506181221 11 104 0.0 3.2 0.15 1.78 1.78 88 988.9
20260506181121 11 75 0.0 3.2 0.15 1.78 1.78 88 988.8
20260506181021 11 5 1.6 4.8 0.15 1.78 1.78 88 988.8
20260506180921 11 76 1.6 4.8 0.15 1.78 1.78 88 988.8
20260506180821 11 82 1.6 4.8 0.15 1.78 1.78 88 988.9
20260506180721 11 112 0.0 4.8 0.13 1.75 1.75 88 988.8
20260506180621 11 45 0.0 1.6 0.15 1.75 1.75 88 988.9
20260506180521 11 57 0.0 4.8 0.15 1.75 1.75 87 988.7
20260506180421 11 72 1.6 4.8 0.15 1.75 1.75 88 988.7
20260506180321 11 90 1.6 3.2 0.15 1.75 1.75 88 988.7
20260506180221 11 57 1.6 3.2 0.15 1.75 1.75 88 988.7
20260506180121 11 25 0.0 3.2 0.13 1.70 1.70 88 988.6
20260506180021 11 340 0.0 1.6 0.13 1.70 1.70 88 988.6
20260506175921 11 101 0.0 1.6 0.13 1.70 1.70 88 988.6
20260506175821 11 90 0.0 1.6 0.13 1.70 1.70 88 988.5
20260506175721 11 92 0.0 1.6 0.13 1.70 1.70 88 988.5
20260506175621 11 221 0.0 1.6 0.13 1.70 1.70 88 988.6
20260506175521 11 190 0.0 0.0 0.13 1.70 1.70 88 988.6
20260506175421 11 121 0.0 1.6 0.13 1.70 1.70 88 988.6
20260506175321 11 98 0.0 1.6 0.10 1.68 1.68 88 988.6
20260506175223 11 112 0.0 0.0 0.10 1.68 1.68 88 988.7
20260506175123 11 112 0.0 1.6 0.10 1.68 1.68 88 988.6
20260506175023 11 67 0.0 1.6 0.10 1.68 1.68 88 988.6
20260506174923 11 34 0.0 1.6 0.10 1.68 1.68 88 988.5
20260506174822 11 48 0.0 1.6 0.13 1.68 1.68 88 988.5
20260506174722 11 40 0.0 3.2 0.13 1.68 1.68 88 988.4
20260506174622 11 151 1.6 3.2 0.13 1.68 1.68 88 988.5
20260506174522 11 57 0.0 3.2 0.13 1.68 1.68 88 988.5
20260506174422 11 88 0.0 1.6 0.13 1.68 1.68 88 988.5
20260506174322 11 90 0.0 1.6 0.13 1.68 1.68 88 988.4
20260506174222 11 90 0.0 3.2 0.10 1.65 1.65 88 988.4
20260506174122 11 125 0.0 3.2 0.10 1.65 1.65 88 988.4
20260506174022 11 233 0.0 1.6 0.10 1.65 1.65 88 988.4
20260506173922 11 315 0.0 1.6 0.10 1.65 1.65 88 988.4
20260506173822 11 18 0.0 1.6 0.10 1.65 1.65 88 988.4
20260506173722 11 15 0.0 3.2 0.10 1.65 1.65 87 988.6
20260506173622 11 97 1.6 8.0 0.10 1.65 1.65 87 988.3
20260506173522 11 92 3.2 8.0 0.10 1.65 1.65 87 988.2
20260506173422 11 90 1.6 3.2 0.10 1.65 1.65 87 988.2
20260506173322 11 211 0.0 3.2 0.10 1.65 1.65 88 988.4
20260506173222 11 80 0.0 1.6 0.10 1.65 1.65 87 988.3
20260506173122 11 52 0.0 1.6 0.05 1.63 1.63 87 988.3
20260506173022 11 141 0.0 1.6 0.05 1.63 1.63 87 988.3
20260506172922 11 95 0.0 1.6 0.05 1.63 1.63 87 988.2
20260506172822 11 82 0.0 0.0 0.05 1.63 1.63 87 988.3
20260506172722 11 75 0.0 1.6 0.05 1.63 1.63 87 988.3
20260506172622 11 78 0.0 1.6 0.05 1.63 1.63 87 988.2
20260506172522 11 97 0.0 3.2 0.05 1.63 1.63 86 988.3
20260506172422 12 112 1.6 3.2 0.05 1.63 1.63 86 988.2
20260506172322 12 71 0.0 3.2 0.05 1.63 1.63 87 988.1
20260506172222 12 340 0.0 1.6 0.05 1.63 1.63 86 988.3
20260506172122 12 326 1.6 3.2 0.10 1.63 1.63 86 988.2
20260506172022 12 198 1.6 3.2 0.10 1.65 1.63 86 988.0
20260506171922 12 102 0.0 3.2 0.10 1.65 1.63 86 988.2
20260506171822 12 270 1.6 3.2 0.10 1.65 1.63 86 988.1
20260506171722 12 335 1.6 3.2 0.10 1.65 1.63 86 988.2
20260506171622 12 105 1.6 1.6 0.10 1.65 1.63 86 988.1
20260506171522 12 12 0.0 1.6 0.10 1.65 1.63 86 988.2
20260506171421 12 90 0.0 3.2 0.10 1.65 1.63 86 988.2
20260506171321 12 104 1.6 3.2 0.10 1.65 1.63 86 988.2
20260506171221 12 90 1.6 4.8 0.10 1.68 1.63 86 988.0
20260506171121 12 90 1.6 4.8 0.10 1.68 1.63 85 988.1
20260506171021 12 107 1.6 4.8 0.10 1.70 1.63 85 988.0
20260506170921 12 112 1.6 4.8 0.10 1.70 1.63 86 988.2
20260506170821 12 93 1.6 1.6 0.10 1.70 1.63 86 988.2
20260506170721 12 277 1.6 11.3 0.10 1.70 1.63 86 988.1
20260506170621 12 112 3.2 11.3 0.05 1.70 1.60 86 988.0
20260506170521 12 79 1.6 3.2 0.05 1.70 1.60 86 988.0
20260506170421 12 93 0.0 1.6 0.05 1.70 1.60 86 988.1
20260506170321 12 248 0.0 1.6 0.05 1.70 1.60 86 988.1
20260506170221 12 230 1.6 9.7 0.05 1.70 1.60 86 988.1
20260506170121 12 241 1.6 9.7 0.05 1.75 1.60 86 988.0
20260506170021 12 129 1.6 3.2 0.05 1.80 1.60 85 988.0
20260506165921 12 116 1.6 3.2 0.05 1.80 1.60 85 988.1
20260506165821 12 107 1.6 3.2 0.05 1.93 1.60 85 988.0
20260506165723 12 154 1.6 4.8 0.05 1.96 1.60 85 988.1
20260506165623 12 143 1.6 9.7 0.05 2.01 1.60 86 988.1
20260506165523 12 135 1.6 9.7 0.05 2.03 1.60 86 988.0
20260506165423 12 150 1.6 9.7 0.05 2.11 1.60 85 988.0
20260506165323 12 140 1.6 8.0 0.05 2.11 1.60 86 988.1
20260506165222 12 52 0.0 8.0 0.05 2.13 1.60 86 988.0
20260506165122 12 52 1.6 8.0 0.05 2.16 1.60 86 988.1
20260506165022 12 91 1.6 3.2 0.05 2.18 1.60 86 988.0
20260506164922 12 110 1.6 3.2 0.05 2.18 1.60 85 988.0
20260506164822 12 116 1.6 3.2 0.03 2.16 1.55 85 988.0
20260506164722 12 116 1.6 3.2 0.03 2.18 1.55 85 988.0
20260506164622 12 150 1.6 4.8 0.03 2.18 1.55 85 988.1
20260506164522 12 158 1.6 4.8 0.03 2.18 1.55 85 988.2
20260506164422 12 104 1.6 8.0 0.03 2.18 1.55 85 988.1
20260506164322 12 112 1.6 4.8 0.03 2.18 1.55 85 988.1
20260506164222 12 319 1.6 8.0 0.03 2.21 1.55 85 988.1
20260506164122 12 253 3.2 8.0 0.03 2.21 1.55 86 988.1
20260506164022 12 138 1.6 3.2 0.03 2.21 1.55 86 988.0
20260506163922 12 135 1.6 4.8 0.03 2.26 1.55 85 988.0
20260506163822 12 124 1.6 4.8 0.03 2.26 1.55 86 987.9
20260506163722 12 68 1.6 3.2 0.03 2.26 1.55 86 988.0
20260506163622 12 109 1.6 4.8 0.03 2.26 1.55 85 988.0
20260506163522 12 112 1.6 4.8 0.03 2.26 1.55 85 988.0
20260506163422 12 131 1.6 4.8 0.03 2.26 1.55 85 988.1
20260506163322 12 135 1.6 3.2 0.03 2.26 1.55 86 988.0
20260506163222 12 152 1.6 3.2 0.03 2.26 1.55 85 988.1
20260506163122 12 135 1.6 3.2 0.03 2.26 1.55 85 988.1
20260506163021 12 150 0.0 3.2 0.03 2.29 1.55 86 988.1
20260506162921 12 159 0.0 3.2 0.03 2.29 1.55 86 988.0
20260506162821 12 236 1.6 3.2 0.03 2.29 1.55 85 988.0
20260506162721 12 201 1.6 4.8 0.03 2.31 1.55 86 988.1
20260506162621 12 124 1.6 4.8 0.03 2.31 1.55 85 988.1
20260506162521 12 116 1.6 3.2 0.03 2.31 1.55 85 988.1
20260506162421 12 112 1.6 4.8 0.03 2.31 1.55 85 988.2
20260506162321 12 112 1.6 4.8 0.03 2.31 1.55 85 988.0
20260506162221 12 112 1.6 3.2 0.03 2.31 1.55 85 988.1
20260506162121 12 131 1.6 3.2 0.00 2.29 1.52 85 988.1
20260506162021 12 118 0.0 3.2 0.00 2.31 1.52 86 988.2
20260506161921 12 40 0.0 3.2 0.00 2.31 1.52 85 988.0
20260506161821 12 112 1.6 3.2 0.00 2.31 1.52 85 988.0
20260506161721 12 113 0.0 3.2 0.00 2.31 1.52 86 988.0
20260506161621 12 244 1.6 1.6 0.00 2.31 1.52 85 988.2
20260506161521 12 264 1.6 8.0 0.03 2.31 1.52 84 988.2
20260506161421 12 290 1.6 8.0 0.03 2.31 1.52 84 988.2
20260506161321 12 216 1.6 3.2 0.03 2.31 1.52 85 988.1
20260506161223 12 114 1.6 3.2 0.03 2.31 1.52 86 988.1
20260506161123 12 112 1.6 3.2 0.03 2.31 1.52 86 988.1
20260506161023 12 37 0.0 3.2 0.03 2.31 1.52 86 988.1
20260506160923 12 357 0.0 3.2 0.03 2.31 1.52 85 988.1
20260506160822 12 131 1.6 3.2 0.03 2.31 1.52 85 988.1
20260506160722 12 129 1.6 3.2 0.03 2.31 1.52 85 988.2
20260506160622 12 119 1.6 3.2 0.03 2.31 1.52 85 988.1
20260506160522 12 135 3.2 4.8 0.03 2.31 1.52 85 988.1
20260506160422 12 113 1.6 4.8 0.05 2.31 1.52 85 988.0
20260506160322 12 45 3.2 9.7 0.05 2.31 1.52 85 988.0
20260506160222 12 48 3.2 9.7 0.05 2.31 1.52 85 988.2
20260506160122 12 118 0.0 3.2 0.05 2.31 1.52 85 988.2
20260506160022 12 98 1.6 3.2 0.05 2.31 1.52 86 988.1
20260506155922 12 180 1.6 4.8 0.10 2.31 1.52 85 988.1
20260506155822 12 169 3.2 8.0 0.10 2.31 1.52 84 988.1
20260506155722 12 115 1.6 8.0 0.10 2.31 1.52 85 988.2
20260506155622 12 68 0.0 4.8 0.13 2.31 1.52 86 988.1
20260506155522 12 76 0.0 8.0 0.13 2.31 1.52 85 988.1
20260506155422 12 98 1.6 8.0 0.13 2.31 1.52 85 987.9
20260506155322 12 139 1.6 8.0 0.15 2.31 1.52 84 988.1
20260506155222 12 352 1.6 8.0 0.15 2.31 1.52 84 988.2
20260506155122 12 69 1.6 1.6 0.15 2.31 1.52 85 988.2
20260506155022 12 140 1.6 4.8 0.15 2.31 1.52 83 988.1
20260506154922 12 164 3.2 9.7 0.15 2.31 1.52 83 988.2
20260506154822 12 178 4.8 9.7 0.18 2.31 1.52 82 988.1
20260506154722 12 119 3.2 9.7 0.18 2.31 1.52 83 988.1
20260506154622 12 59 1.6 3.2 0.18 2.31 1.52 84 988.1
20260506154522 12 123 1.6 8.0 0.20 2.31 1.52 83 988.1
20260506154422 12 113 3.2 8.0 0.20 2.31 1.52 83 988.2
20260506154322 12 84 1.6 8.0 0.20 2.31 1.52 84 988.2
20260506154221 12 225 1.6 8.0 0.20 2.31 1.52 84 988.1
20260506154122 12 122 1.6 9.7 0.23 2.31 1.52 83 988.1
20260506154021 12 112 3.2 9.7 0.23 2.31 1.52 84 988.1
20260506153921 12 112 1.6 9.7 0.23 2.31 1.52 85 988.1
20260506153821 12 217 1.6 3.2 0.23 2.31 1.52 85 988.1
20260506153721 12 262 1.6 8.0 0.23 2.31 1.52 85 988.2
20260506153621 12 246 3.2 8.0 0.28 2.31 1.52 85 988.1
20260506153521 12 113 1.6 9.7 0.28 2.31 1.52 85 988.2
20260506153421 12 112 3.2 9.7 0.28 2.31 1.52 85 988.2
20260506153322 12 107 1.6 9.7 0.28 2.31 1.52 86 988.1
20260506153221 12 91 1.6 4.8 0.30 2.31 1.52 86 988.4
20260506153121 12 143 1.6 8.0 0.30 2.31 1.52 86 988.1
20260506153021 12 131 1.6 8.0 0.33 2.31 1.52 86 988.1
20260506152921 12 109 1.6 4.8 0.33 2.31 1.52 87 988.0
20260506152821 12 135 1.6 4.8 0.33 2.31 1.52 87 988.1
20260506152721 12 112 1.6 3.2 0.36 2.31 1.52 87 988.2
20260506152621 12 68 1.6 3.2 0.36 2.31 1.52 87 988.1
20260506152521 12 85 1.6 3.2 0.36 2.31 1.52 87 988.1
20260506152421 12 111 3.2 8.0 0.36 2.31 1.52 86 988.1
20260506152321 12 107 3.2 8.0 0.38 2.31 1.52 87 988.0
20260506152223 12 52 0.0 3.2 0.38 2.31 1.52 87 988.0
20260506152123 12 124 1.6 3.2 0.38 2.31 1.52 87 988.0
20260506152023 12 135 1.6 3.2 0.38 2.31 1.52 88 988.1
20260506151923 12 127 1.6 3.2 0.38 2.31 1.52 88 988.0
20260506151822 12 112 1.6 4.8 0.38 2.31 1.52 87 988.0
20260506151722 12 112 1.6 4.8 0.43 2.31 1.52 87 988.0
20260506151622 12 112 3.2 8.0 0.43 2.31 1.52 88 988.0
20260506151522 12 112 3.2 8.0 0.38 2.29 1.50 88 988.1
20260506151422 12 112 3.2 8.0 0.38 2.29 1.50 88 988.0
20260506151322 12 112 3.2 8.0 0.38 2.29 1.50 88 988.1
20260506151222 12 36 0.0 4.8 0.38 2.29 1.50 89 988.1
20260506151122 12 66 1.6 3.2 0.38 2.29 1.50 89 988.1
20260506151022 12 309 0.0 3.2 0.43 2.29 1.50 89 988.2
20260506150922 12 137 0.0 1.6 0.43 2.29 1.50 89 988.3
20260506150822 12 112 1.6 4.8 0.43 2.29 1.50 89 988.1
20260506150722 12 152 1.6 11.3 0.43 2.29 1.50 89 988.3
20260506150622 12 122 1.6 11.3 0.43 2.29 1.50 89 988.2
20260506150522 12 123 1.6 4.8 0.43 2.29 1.50 89 988.1
20260506150422 12 48 1.6 4.8 0.43 2.26 1.47 89 988.0
20260506150322 12 172 1.6 3.2 0.43 2.26 1.47 89 988.0
20260506150222 12 53 1.6 3.2 0.46 2.26 1.47 89 988.0
20260506150122 12 248 1.6 3.2 0.48 2.26 1.47 89 988.0
20260506150022 12 39 1.6 3.2 0.51 2.26 1.47 89 988.0
20260506145922 12 315 1.6 3.2 0.48 2.21 1.45 89 988.0
20260506145822 12 82 1.6 8.0 0.51 2.21 1.45 88 988.1
20260506145722 12 99 1.6 8.0 0.53 2.21 1.45 89 987.9
20260506145621 12 323 1.6 4.8 0.51 2.18 1.42 88 988.0
20260506145521 12 67 1.6 3.2 0.53 2.18 1.42 88 987.9
20260506145421 12 324 1.6 3.2 0.53 2.18 1.42 88 987.9
20260506145321 12 145 1.6 4.8 0.53 2.16 1.37 88 987.9
20260506145221 12 315 1.6 4.8 0.53 2.16 1.37 88 987.9
20260506145121 12 14 3.2 8.0 0.53 2.16 1.37 88 987.8
20260506145021 12 113 3.2 9.7 0.53 2.16 1.37 88 987.8
20260506144921 12 201 1.6 9.7 0.53 2.16 1.37 88 987.8
20260506144821 12 158 1.6 3.2 0.51 2.13 1.35 88 987.9
20260506144721 12 143 1.6 4.8 0.51 2.13 1.35 88 987.8
20260506144621 12 142 1.6 4.8 0.53 2.13 1.35 88 987.7
20260506144521 12 121 1.6 9.7 0.51 2.11 1.32 88 987.8
20260506144421 12 94 3.2 9.7 0.51 2.11 1.32 88 987.8
20260506144321 12 50 1.6 3.2 0.51 2.11 1.32 89 987.8
20260506144221 12 97 1.6 3.2 0.51 2.11 1.32 89 987.8
20260506144121 12 90 1.6 3.2 0.48 2.06 1.30 88 987.7
20260506144023 12 97 1.6 4.8 0.48 2.06 1.30 88 987.8
20260506143923 12 22 3.2 8.0 0.48 2.06 1.30 88 987.8
20260506143823 12 26 3.2 8.0 0.48 2.06 1.30 88 987.8
20260506143722 12 112 3.2 4.8 0.48 2.06 1.30 88 987.7
20260506143622 12 112 3.2 11.3 0.46 2.03 1.27 88 987.7
20260506143522 12 313 1.6 11.3 0.46 2.03 1.27 89 987.9
20260506143422 12 99 1.6 4.8 0.46 2.03 1.27 89 987.9
20260506143322 12 111 0.0 4.8 0.46 2.03 1.27 89 987.8
20260506143222 12 103 1.6 3.2 0.43 2.01 1.22 89 987.8
20260506143122 12 135 3.2 8.0 0.43 2.01 1.22 89 987.7
20260506143022 12 180 3.2 8.0 0.38 1.98 1.19 88 987.8
20260506142922 12 136 1.6 8.0 0.38 1.98 1.19 88 987.7
20260506142822 12 3 3.2 4.8 0.38 1.98 1.19 88 987.6
20260506142722 12 180 3.2 4.8 0.36 1.96 1.17 88 987.5
20260506142622 12 35 1.6 8.0 0.36 1.96 1.17 89 987.7
20260506142522 12 81 1.6 8.0 0.36 1.96 1.17 89 987.7
20260506142422 12 347 1.6 8.0 0.36 1.96 1.17 89 987.7
20260506142322 13 17 1.6 3.2 0.36 1.93 1.14 89 987.7
20260506142222 13 311 1.6 8.0 0.36 1.93 1.14 88 987.6
20260506142122 13 3 1.6 8.0 0.36 1.93 1.14 88 987.6
20260506142022 13 13 1.6 3.2 0.36 1.93 1.14 88 987.6
20260506141922 13 92 1.6 3.2 0.36 1.93 1.14 88 987.7
20260506141822 13 40 1.6 3.2 0.36 1.93 1.14 88 987.6
20260506141722 13 81 1.6 3.2 0.33 1.88 1.12 88 987.7
20260506141622 13 135 1.6 3.2 0.33 1.88 1.12 88 987.7
20260506141522 13 345 1.6 3.2 0.33 1.88 1.12 88 987.6
20260506141422 13 80 1.6 3.2 0.33 1.88 1.12 87 987.6
20260506141322 13 303 1.6 3.2 0.33 1.88 1.12 88 987.6
20260506141222 13 112 1.6 4.8 0.33 1.88 1.12 88 987.4
20260506141122 13 284 1.6 4.8 0.36 1.88 1.12 88 987.5
20260506141022 13 175 1.6 3.2 0.36 1.85 1.09 88 987.5
20260506140921 13 46 1.6 9.7 0.36 1.85 1.09 88 987.5
20260506140821 13 134 1.6 9.7 0.38 1.85 1.09 88 987.3
20260506140721 13 100 1.6 9.7 0.43 1.85 1.09 88 987.4
20260506140621 13 99 1.6 8.0 0.46 1.85 1.09 89 987.3
20260506140521 13 102 0.0 8.0 0.51 1.85 1.09 89 987.5
20260506140421 13 180 1.6 3.2 0.56 1.83 1.04 88 987.6
20260506140321 13 33 1.6 4.8 0.71 1.83 1.04 88 987.5
20260506140221 13 135 1.6 4.8 0.71 1.80 1.02 89 987.6
20260506140121 13 95 0.0 1.6 0.71 1.78 0.99 88 987.5
20260506140021 13 53 0.0 1.6 0.76 1.75 0.97 88 987.4
20260506135921 13 82 0.0 1.6 0.94 1.75 0.97 88 987.6
20260506135821 13 337 0.0 1.6 0.89 1.70 0.94 87 987.6
20260506135721 13 312 1.6 3.2 0.89 1.68 0.89 87 987.5
20260506135621 13 82 1.6 3.2 0.89 1.68 0.89 87 987.5
20260506135521 13 327 0.0 3.2 0.86 1.65 0.86 87 987.4
20260506135421 13 303 0.0 3.2 0.86 1.65 0.86 86 987.5
20260506135321 13 138 1.6 3.2 0.84 1.63 0.84 86 987.5
20260506135221 13 21 0.0 3.2 0.84 1.63 0.84 87 987.4
20260506135121 13 329 0.0 0.0 0.84 1.63 0.84 88 987.4
20260506135021 13 315 0.0 0.0 0.84 1.63 0.84 88 987.3
20260506134921 13 315 0.0 0.0 0.84 1.63 0.84 88 987.3
20260506134821 13 315 0.0 0.0 0.84 1.63 0.84 88 987.3
20260506134723 13 306 0.0 0.0 0.84 1.63 0.84 88 987.2
20260506134623 13 235 0.0 4.8 0.81 1.60 0.81 89 987.4
20260506134523 13 267 1.6 4.8 0.81 1.60 0.81 88 987.3
20260506134422 13 280 0.0 4.8 0.81 1.60 0.81 89 987.5
20260506134322 13 5 0.0 0.0 0.81 1.60 0.81 90 987.3
20260506134222 13 15 0.0 0.0 0.81 1.60 0.81 90 987.3
20260506134122 13 0 0.0 0.0 0.81 1.60 0.81 90 987.3
20260506134022 13 79 0.0 0.0 0.81 1.60 0.81 90 987.3
20260506133922 13 53 0.0 0.0 0.81 1.60 0.81 90 987.4
20260506133822 13 345 0.0 0.0 0.81 1.60 0.81 90 987.2
20260506133722 13 338 0.0 0.0 0.81 1.60 0.81 90 987.3
20260506133622 13 298 0.0 0.0 0.81 1.60 0.81 90 987.2
20260506133522 13 292 0.0 0.0 0.81 1.60 0.81 90 987.3
20260506133422 13 17 0.0 0.0 0.81 1.60 0.81 90 987.1
20260506133322 13 304 0.0 1.6 0.81 1.60 0.81 89 987.3
20260506133222 13 347 0.0 1.6 0.81 1.60 0.81 90 987.3
20260506133122 13 351 0.0 0.0 0.81 1.60 0.81 90 987.2
20260506133022 13 292 0.0 1.6 0.81 1.60 0.81 89 987.3
20260506132922 13 313 0.0 4.8 0.81 1.60 0.81 89 987.4
20260506132822 13 251 1.6 4.8 0.81 1.60 0.81 89 987.4
20260506132722 13 255 1.6 4.8 0.81 1.60 0.81 89 987.4
20260506132622 13 270 1.6 4.8 0.81 1.60 0.81 89 987.2
20260506132522 13 300 1.6 4.8 0.81 1.60 0.81 89 987.4
20260506132422 13 285 1.6 4.8 0.81 1.60 0.81 89 987.3
20260506132322 13 290 1.6 4.8 0.79 1.55 0.79 89 987.4
20260506132222 13 338 1.6 4.8 0.79 1.55 0.79 89 987.3
20260506132122 13 254 0.0 1.6 0.79 1.55 0.79 89 987.2
20260506132021 13 311 0.0 1.6 0.79 1.55 0.79 90 987.3
20260506131921 13 303 0.0 1.6 0.79 1.55 0.79 89 987.3
20260506131821 13 285 0.0 1.6 0.79 1.55 0.79 89 987.2
20260506131721 13 305 0.0 1.6 0.79 1.55 0.79 89 987.1
20260506131621 13 322 0.0 0.0 0.79 1.55 0.79 89 987.3